| time (UTC) | temp C | wind direction | speed KPH | gust KPH | rain 1hr cm | rain 24hr cm | rain mn cm | humidity % | barometer mb |
| 20260905194948 | 12 | 273 | 17.7 | 35.4 | 0.00 | 0.00 | 0.00 | 100 | 904.2 |
| 20260905194845 | 12 | 270 | 19.3 | 35.4 | 0.00 | 0.00 | 0.00 | 100 | 905.7 |
| 20260905194738 | 12 | 270 | 19.3 | 35.4 | 0.00 | 0.00 | 0.00 | 100 | 909.3 |
| 20260905194530 | 12 | 267 | 16.1 | 35.4 | 0.00 | 0.00 | 0.00 | 100 | 905.9 |
| 20260905194333 | 12 | 276 | 14.5 | 45.1 | 0.00 | 0.00 | 0.00 | 100 | 909.2 |
| 20260905194123 | 12 | 272 | 17.7 | 43.5 | 0.00 | 0.00 | 0.00 | 100 | 904.6 |
| 20260905193915 | 12 | 266 | 17.7 | 43.5 | 0.00 | 0.00 | 0.00 | 100 | 908.8 |
| 20260905193812 | 12 | 264 | 19.3 | 53.1 | 0.00 | 0.00 | 0.00 | 100 | 904.0 |
| 20260905193705 | 12 | 269 | 19.3 | 53.1 | 0.00 | 0.00 | 0.00 | 100 | 905.6 |
| 20260905193457 | 12 | 271 | 17.7 | 53.1 | 0.00 | 0.00 | 0.00 | 100 | 904.2 |
| 20260905193259 | 12 | 279 | 17.7 | 37.0 | 0.00 | 0.00 | 0.00 | 100 | 905.3 |
| 20260905193248 | 12 | 279 | 17.7 | 37.0 | 0.00 | 0.00 | 0.00 | 100 | 908.5 |
| 20260905193039 | 12 | 282 | 14.5 | 37.0 | 0.00 | 0.00 | 0.00 | 100 | 903.7 |
| 20260905192830 | 12 | 280 | 16.1 | 35.4 | 0.00 | 0.00 | 0.00 | 100 | 906.4 |
| 20260905192727 | 12 | 277 | 17.7 | 37.0 | 0.00 | 0.00 | 0.00 | 100 | 908.3 |
| 20260905192631 | 12 | 278 | 19.3 | 45.1 | 0.00 | 0.00 | 0.00 | 100 | 904.4 |
| 20260905192423 | 12 | 285 | 17.7 | 46.7 | 0.00 | 0.00 | 0.00 | 100 | 909.5 |
| 20260905192215 | 12 | 290 | 17.7 | 46.7 | 0.00 | 0.00 | 0.00 | 100 | 904.3 |
| 20260905192012 | 12 | 281 | 17.7 | 37.0 | 0.00 | 0.00 | 0.00 | 100 | 906.4 |
| 20260905192000 | 12 | 281 | 17.7 | 37.0 | 0.00 | 0.00 | 0.00 | 100 | 903.7 |
| 20260905191751 | 12 | 280 | 19.3 | 37.0 | 0.00 | 0.00 | 0.00 | 100 | 904.2 |
| 20260905191648 | 12 | 283 | 19.3 | 35.4 | 0.00 | 0.00 | 0.00 | 100 | 904.8 |
| 20260905191552 | 12 | 283 | 17.7 | 35.4 | 0.00 | 0.00 | 0.00 | 100 | 904.4 |
| 20260905191345 | 12 | 276 | 17.7 | 45.1 | 0.00 | 0.00 | 0.00 | 100 | 904.0 |
| 20260905191136 | 12 | 263 | 19.3 | 45.1 | 0.00 | 0.00 | 0.00 | 100 | 903.5 |
| 20260905190927 | 12 | 278 | 20.9 | 33.8 | 0.00 | 0.00 | 0.00 | 100 | 904.4 |
| 20260905190730 | 12 | 288 | 22.5 | 48.3 | 0.00 | 0.00 | 0.00 | 100 | 907.1 |
| 20260905190718 | 12 | 288 | 22.5 | 48.3 | 0.00 | 0.00 | 0.00 | 100 | 903.4 |
| 20260905190615 | 12 | 288 | 20.9 | 48.3 | 0.00 | 0.00 | 0.00 | 100 | 903.4 |
| 20260905190508 | 12 | 286 | 20.9 | 48.3 | 0.00 | 0.00 | 0.00 | 100 | 904.0 |
| 20260905190300 | 12 | 282 | 17.7 | 37.0 | 0.00 | 0.00 | 0.00 | 100 | 903.8 |
| 20260905190052 | 12 | 284 | 17.7 | 35.4 | 0.00 | 0.00 | 0.00 | 100 | 906.1 |
| 20260905185854 | 12 | 288 | 17.7 | 38.6 | 0.00 | 0.00 | 0.00 | 100 | 903.5 |
| 20260905185645 | 12 | 288 | 17.7 | 45.1 | 0.00 | 0.00 | 0.00 | 100 | 905.0 |
| 20260905185542 | 12 | 288 | 17.7 | 45.1 | 0.00 | 0.00 | 0.00 | 100 | 905.2 |
| 20260905185447 | 12 | 289 | 19.3 | 45.1 | 0.00 | 0.00 | 0.00 | 100 | 905.2 |
| 20260905185435 | 12 | 289 | 19.3 | 45.1 | 0.00 | 0.00 | 0.00 | 100 | 904.5 |
| 20260905185227 | 12 | 287 | 19.3 | 40.2 | 0.00 | 0.00 | 0.00 | 100 | 905.8 |
| 20260905185019 | 12 | 287 | 19.3 | 43.5 | 0.00 | 0.00 | 0.00 | 100 | 903.7 |
| 20260905184810 | 12 | 290 | 20.9 | 43.5 | 0.00 | 0.00 | 0.00 | 100 | 906.1 |
| 20260905184601 | 12 | 290 | 19.3 | 41.8 | 0.00 | 0.00 | 0.00 | 100 | 905.2 |
| 20260905184458 | 12 | 292 | 16.1 | 43.5 | 0.00 | 0.00 | 0.00 | 100 | 908.4 |
| 20260905184352 | 13 | 288 | 17.7 | 43.5 | 0.00 | 0.00 | 0.00 | 100 | 903.4 |
| 20260905184155 | 12 | 279 | 19.3 | 45.1 | 0.00 | 0.00 | 0.00 | 100 | 903.5 |
| 20260905184143 | 12 | 279 | 19.3 | 45.1 | 0.00 | 0.00 | 0.00 | 100 | 904.2 |
| 20260905183946 | 12 | 283 | 19.3 | 45.1 | 0.00 | 0.00 | 0.00 | 100 | 909.1 |
| 20260905183736 | 12 | 286 | 20.9 | 37.0 | 0.00 | 0.00 | 0.00 | 100 | 904.9 |
| 20260905183527 | 12 | 276 | 19.3 | 41.8 | 0.00 | 0.00 | 0.00 | 100 | 903.7 |
| 20260905183424 | 12 | 278 | 19.3 | 45.1 | 0.00 | 0.00 | 0.00 | 100 | 904.4 |
| 20260905183318 | 12 | 278 | 17.7 | 45.1 | 0.00 | 0.00 | 0.00 | 100 | 906.3 |
| 20260905183109 | 13 | 285 | 20.9 | 45.1 | 0.00 | 0.00 | 0.00 | 100 | 904.6 |
| 20260905182914 | 13 | 277 | 20.9 | 45.1 | 0.00 | 0.00 | 0.00 | 100 | 906.6 |
| 20260905182901 | 13 | 277 | 20.9 | 45.1 | 0.00 | 0.00 | 0.00 | 100 | 903.1 |
| 20260905182652 | 12 | 280 | 19.3 | 40.2 | 0.00 | 0.00 | 0.00 | 100 | 903.8 |
| 20260905182443 | 13 | 283 | 19.3 | 45.1 | 0.00 | 0.00 | 0.00 | 100 | 908.1 |
| 20260905182351 | 12 | 283 | 19.3 | 45.1 | 0.00 | 0.00 | 0.00 | 100 | 904.1 |
| 20260905182244 | 12 | 282 | 17.7 | 41.8 | 0.00 | 0.00 | 0.00 | 100 | 905.5 |
| 20260905182036 | 13 | 281 | 17.7 | 35.4 | 0.00 | 0.00 | 0.00 | 100 | 903.3 |
| 20260905181828 | 12 | 277 | 17.7 | 35.4 | 0.00 | 0.00 | 0.00 | 100 | 904.6 |
| 20260905181630 | 13 | 281 | 16.1 | 33.8 | 0.00 | 0.00 | 0.00 | 100 | 907.1 |
| 20260905181619 | 13 | 281 | 16.1 | 33.8 | 0.00 | 0.00 | 0.00 | 100 | 903.8 |
| 20260905181410 | 12 | 282 | 16.1 | 30.6 | 0.00 | 0.00 | 0.00 | 100 | 904.2 |
| 20260905181307 | 12 | 274 | 16.1 | 38.6 | 0.00 | 0.00 | 0.00 | 100 | 905.2 |
| 20260905181201 | 13 | 272 | 17.7 | 53.1 | 0.00 | 0.00 | 0.00 | 100 | 908.4 |
| 20260905180952 | 12 | 264 | 19.3 | 53.1 | 0.00 | 0.00 | 0.00 | 100 | 903.1 |
| 20260905180744 | 12 | 270 | 16.1 | 35.4 | 0.00 | 0.00 | 0.00 | 100 | 908.2 |
| 20260905180557 | 13 | 269 | 17.7 | 46.7 | 0.00 | 0.00 | 0.00 | 100 | 903.5 |
| 20260905180546 | 13 | 269 | 17.7 | 46.7 | 0.00 | 0.00 | 0.00 | 100 | 903.9 |
| 20260905180337 | 13 | 271 | 20.9 | 51.5 | 0.00 | 0.00 | 0.00 | 100 | 908.1 |
| 20260905180234 | 13 | 271 | 20.9 | 51.5 | 0.00 | 0.00 | 0.00 | 100 | 902.9 |
| 20260905180127 | 12 | 266 | 19.3 | 51.5 | 0.00 | 0.00 | 0.00 | 100 | 902.9 |
| 20260905175919 | 13 | 258 | 19.3 | 40.2 | 0.00 | 0.00 | 0.00 | 100 | 907.0 |
| 20260905175711 | 13 | 260 | 20.9 | 41.8 | 0.00 | 0.00 | 0.00 | 100 | 903.6 |
| 20260905175502 | 13 | 271 | 20.9 | 41.8 | 0.00 | 0.00 | 0.00 | 100 | 902.9 |
| 20260905175253 | 13 | 272 | 19.3 | 41.8 | 0.00 | 0.00 | 0.00 | 100 | 904.0 |
| 20260905175150 | 13 | 272 | 16.1 | 41.8 | 0.00 | 0.00 | 0.00 | 100 | 906.4 |
| 20260905175055 | 13 | 263 | 16.1 | 33.8 | 0.00 | 0.00 | 0.00 | 100 | 906.4 |
| 20260905175044 | 13 | 263 | 16.1 | 33.8 | 0.00 | 0.00 | 0.00 | 100 | 907.4 |
| 20260905174846 | 13 | 259 | 16.1 | 33.8 | 0.00 | 0.00 | 0.00 | 100 | 903.7 |
| 20260905174637 | 13 | 260 | 16.1 | 35.4 | 0.00 | 0.00 | 0.00 | 100 | 906.7 |
| 20260905174429 | 13 | 268 | 16.1 | 37.0 | 0.00 | 0.00 | 0.00 | 100 | 902.9 |
| 20260905174220 | 13 | 271 | 17.7 | 43.5 | 0.00 | 0.00 | 0.00 | 100 | 905.2 |
| 20260905174116 | 13 | 269 | 16.1 | 43.5 | 0.00 | 0.00 | 0.00 | 100 | 908.6 |
| 20260905174010 | 13 | 270 | 16.1 | 43.5 | 0.00 | 0.00 | 0.00 | 100 | 904.0 |
| 20260905173813 | 13 | 275 | 16.1 | 33.8 | 0.00 | 0.00 | 0.00 | 100 | 905.3 |
| 20260905173802 | 13 | 275 | 16.1 | 33.8 | 0.00 | 0.00 | 0.00 | 100 | 908.0 |
| 20260905173553 | 13 | 271 | 14.5 | 33.8 | 0.00 | 0.00 | 0.00 | 100 | 903.1 |
| 20260905173344 | 13 | 273 | 12.9 | 29.0 | 0.00 | 0.00 | 0.00 | 100 | 903.2 |
| 20260905173147 | 13 | 272 | 14.5 | 32.2 | 0.00 | 0.00 | 0.00 | 100 | 908.7 |
| 20260905173043 | 13 | 273 | 16.1 | 46.7 | 0.00 | 0.00 | 0.00 | 100 | 903.6 |
| 20260905172937 | 13 | 274 | 16.1 | 46.7 | 0.00 | 0.00 | 0.00 | 100 | 903.9 |
| 20260905172739 | 13 | 280 | 16.1 | 33.8 | 0.00 | 0.00 | 0.00 | 100 | 908.1 |
| 20260905172728 | 13 | 280 | 16.1 | 33.8 | 0.00 | 0.00 | 0.00 | 100 | 903.2 |
| 20260905172520 | 13 | 272 | 19.3 | 38.6 | 0.00 | 0.00 | 0.00 | 100 | 903.1 |
| 20260905172311 | 13 | 272 | 17.7 | 38.6 | 0.00 | 0.00 | 0.00 | 100 | 903.4 |
| 20260905172103 | 13 | 282 | 12.9 | 32.2 | 0.00 | 0.00 | 0.00 | 100 | 907.7 |
| 20260905171959 | 13 | 279 | 14.5 | 32.2 | 0.00 | 0.00 | 0.00 | 100 | 903.8 |
| 20260905171853 | 13 | 277 | 14.5 | 27.4 | 0.00 | 0.00 | 0.00 | 100 | 904.7 |
| 20260905171645 | 13 | 270 | 16.1 | 37.0 | 0.00 | 0.00 | 0.00 | 100 | 903.4 |
| 20260905171459 | 13 | 275 | 16.1 | 37.0 | 0.00 | 0.00 | 0.00 | 100 | 903.2 |
| 20260905171447 | 13 | 275 | 16.1 | 37.0 | 0.00 | 0.00 | 0.00 | 100 | 903.0 |
| 20260905171238 | 13 | 275 | 16.1 | 35.4 | 0.00 | 0.00 | 0.00 | 100 | 903.0 |
| 20260905171030 | 13 | 280 | 16.1 | 37.0 | 0.00 | 0.00 | 0.00 | 100 | 905.6 |
| 20260905170926 | 13 | 283 | 16.1 | 37.0 | 0.00 | 0.00 | 0.00 | 100 | 908.8 |
| 20260905170820 | 13 | 282 | 17.7 | 41.8 | 0.00 | 0.00 | 0.00 | 100 | 903.6 |
| 20260905170611 | 13 | 279 | 17.7 | 41.8 | 0.00 | 0.00 | 0.00 | 100 | 906.2 |
| 20260905170403 | 13 | 277 | 16.1 | 35.4 | 0.00 | 0.00 | 0.00 | 100 | 903.2 |
| 20260905170154 | 13 | 280 | 20.9 | 35.4 | 0.00 | 0.00 | 0.00 | 100 | 903.0 |
| 20260905165957 | 13 | 277 | 20.9 | 40.2 | 0.00 | 0.00 | 0.00 | 100 | 904.1 |
| 20260905165946 | 13 | 277 | 20.9 | 40.2 | 0.00 | 0.00 | 0.00 | 100 | 906.5 |
| 20260905165842 | 13 | 277 | 19.3 | 40.2 | 0.00 | 0.00 | 0.00 | 100 | 906.5 |
| 20260905165746 | 13 | 272 | 17.7 | 40.2 | 0.00 | 0.00 | 0.00 | 100 | 906.2 |
| 20260905165538 | 13 | 276 | 16.1 | 41.8 | 0.00 | 0.00 | 0.00 | 100 | 904.0 |
| 20260905165330 | 13 | 277 | 16.1 | 41.8 | 0.00 | 0.00 | 0.00 | 100 | 907.4 |
| 20260905165121 | 13 | 272 | 16.1 | 45.1 | 0.00 | 0.00 | 0.00 | 100 | 903.2 |
| 20260905164924 | 13 | 271 | 19.3 | 45.1 | 0.00 | 0.00 | 0.00 | 100 | 903.3 |
| 20260905164912 | 13 | 271 | 19.3 | 45.1 | 0.00 | 0.00 | 0.00 | 100 | |
| 20260905164901 | 13 | 265 | 19.3 | 45.1 | 0.00 | 0.00 | 0.00 | 100 | |
| 20260905164815 | 13 | 265 | 17.7 | 45.1 | 0.00 | 0.00 | 0.00 | 100 | |
| 20260905164624 | 13 | 276 | 16.1 | 38.6 | 0.00 | 0.00 | 0.00 | 100 | |
| 20260905164525 | 13 | 280 | 16.1 | 35.4 | 0.00 | 0.00 | 0.00 | 100 | |
| 20260905164322 | 13 | 276 | 19.3 | 45.1 | 0.00 | 0.00 | 0.00 | 100 | 903.5 |
| 20260905164102 | 13 | 266 | 22.5 | 45.1 | 0.00 | 0.00 | 0.00 | 100 | 903.6 |
| 20260905163949 | 13 | 262 | 22.5 | 45.1 | 0.00 | 0.00 | 0.00 | 100 | 903.6 |
| 20260905163836 | 13 | 264 | 22.5 | 45.1 | 0.00 | 0.00 | 0.00 | 100 | 903.6 |
| 20260905163613 | 13 | 271 | 17.7 | 37.0 | 0.00 | 0.00 | 0.00 | 100 | 904.0 |
| 20260905163405 | 13 | 266 | 20.9 | 45.1 | 0.00 | 0.00 | 0.00 | 100 | 903.9 |
| 20260905163315 | 14 | 269 | 20.9 | 45.1 | 0.00 | 0.00 | 0.00 | 100 | 903.8 |
| 20260905163156 | 14 | 270 | 20.9 | 45.1 | 0.00 | 0.00 | 0.00 | 100 | 903.8 |
| 20260905163102 | 14 | 272 | 19.3 | 48.3 | 0.00 | 0.00 | 0.00 | 100 | 903.9 |
| 20260905162948 | 14 | 272 | 20.9 | 48.3 | 0.00 | 0.00 | 0.00 | 100 | 903.9 |
| 20260905162843 | 14 | 267 | 19.3 | 48.3 | 0.00 | 0.00 | 0.00 | 100 | 903.8 |
| 20260905162738 | 14 | 268 | 17.7 | 48.3 | 0.00 | 0.00 | 0.00 | 100 | 904.0 |
| 20260905162645 | 14 | 272 | 17.7 | 45.1 | 0.00 | 0.00 | 0.00 | 100 | 904.0 |
| 20260905162530 | 14 | 272 | 17.7 | 45.1 | 0.00 | 0.00 | 0.00 | 100 | 903.8 |
| 20260905162446 | 14 | 272 | 19.3 | 45.1 | 0.00 | 0.00 | 0.00 | 100 | 903.8 |
| 20260905162332 | 14 | 270 | 20.9 | 45.1 | 0.00 | 0.00 | 0.00 | 100 | 903.8 |
| 20260905162238 | 14 | 261 | 22.5 | 51.5 | 0.00 | 0.00 | 0.00 | 100 | 903.9 |
| 20260905162123 | 14 | 260 | 20.9 | 51.5 | 0.00 | 0.00 | 0.00 | 100 | 903.8 |
| 20260905162029 | 14 | 271 | 19.3 | 51.5 | 0.00 | 0.00 | 0.00 | 100 | 903.7 |
| 20260905161915 | 14 | 277 | 16.1 | 51.5 | 0.00 | 0.00 | 0.00 | 100 | 904.1 |
| 20260905161810 | 14 | 280 | 19.3 | 45.1 | 0.00 | 0.00 | 0.00 | 100 | 904.1 |
| 20260905161705 | 14 | 277 | 22.5 | 56.3 | 0.00 | 0.00 | 0.00 | 100 | 903.9 |
| 20260905161612 | 14 | 277 | 20.9 | 56.3 | 0.00 | 0.00 | 0.00 | 100 | 904.0 |
| 20260905161456 | 14 | 271 | 20.9 | 56.3 | 0.00 | 0.00 | 0.00 | 100 | 903.7 |
| 20260905161403 | 14 | 275 | 19.3 | 48.3 | 0.00 | 0.00 | 0.00 | 100 | 903.7 |
| 20260905161248 | 14 | 276 | 19.3 | 43.5 | 0.00 | 0.00 | 0.00 | 100 | 904.0 |
| 20260905161155 | 14 | 274 | 19.3 | 45.1 | 0.00 | 0.00 | 0.00 | 100 | 904.0 |
| 20260905161039 | 14 | 274 | 20.9 | 45.1 | 0.00 | 0.00 | 0.00 | 100 | 904.0 |
| 20260905160945 | 14 | 276 | 20.9 | 45.1 | 0.00 | 0.00 | 0.00 | 100 | 903.9 |
| 20260905160831 | 14 | 277 | 20.9 | 46.7 | 0.00 | 0.00 | 0.00 | 100 | 903.8 |
| 20260905160737 | 13 | 278 | 19.3 | 46.7 | 0.00 | 0.00 | 0.00 | 100 | 903.3 |
| 20260905160631 | 13 | 271 | 22.5 | 46.7 | 0.00 | 0.00 | 0.00 | 100 | 903.2 |
| 20260905160538 | 14 | 266 | 25.7 | 56.3 | 0.00 | 0.00 | 0.00 | 100 | 903.0 |
| 20260905160423 | 14 | 260 | 25.7 | 56.3 | 0.00 | 0.00 | 0.00 | 100 | 903.0 |
| 20260905160330 | 14 | 260 | 24.1 | 56.3 | 0.00 | 0.00 | 0.00 | 100 | 903.1 |
| 20260905160215 | 14 | 262 | 24.1 | 56.3 | 0.00 | 0.00 | 0.00 | 100 | 903.1 |
| 20260905160121 | 14 | 262 | 22.5 | 48.3 | 0.00 | 0.00 | 0.00 | 100 | 903.1 |
| 20260905160006 | 14 | 261 | 24.1 | 48.3 | 0.00 | 0.00 | 0.00 | 100 | 903.3 |
| 20260905155912 | 14 | 261 | 24.1 | 48.3 | 0.00 | 0.00 | 0.00 | 100 | 903.3 |
| 20260905155758 | 14 | 257 | 24.1 | 48.3 | 0.00 | 0.00 | 0.00 | 100 | 903.4 |
| 20260905155653 | 14 | 257 | 22.5 | 46.7 | 0.00 | 0.00 | 0.00 | 100 | 903.2 |
| 20260905155548 | 15 | 257 | 22.5 | 40.2 | 0.00 | 0.00 | 0.00 | 100 | 903.5 |
| 20260905155455 | 15 | 257 | 22.5 | 45.1 | 0.00 | 0.00 | 0.00 | 100 | 903.6 |
| 20260905155340 | 15 | 258 | 22.5 | 57.9 | 0.00 | 0.00 | 0.00 | 100 | 903.5 |
| 20260905155246 | 15 | 262 | 22.5 | 57.9 | 0.00 | 0.00 | 0.00 | 100 | 903.4 |
| 20260905155131 | 15 | 260 | 22.5 | 57.9 | 0.00 | 0.00 | 0.00 | 100 | 903.5 |
| 20260905155047 | 15 | 260 | 20.9 | 48.3 | 0.00 | 0.00 | 0.00 | 100 | 903.5 |
| 20260905154932 | 15 | 261 | 19.3 | 41.8 | 0.00 | 0.00 | 0.00 | 100 | 903.6 |
| 20260905154840 | 15 | 261 | 22.5 | 46.7 | 0.00 | 0.00 | 0.00 | 100 | 903.6 |
| 20260905154724 | 14 | 262 | 22.5 | 46.7 | 0.00 | 0.00 | 0.00 | 100 | 903.6 |
| 20260905154619 | 14 | 269 | 24.1 | 49.9 | 0.00 | 0.00 | 0.00 | 100 | 903.4 |
| 20260905154514 | 15 | 270 | 24.1 | 49.9 | 0.00 | 0.00 | 0.00 | 100 | 903.2 |
| 20260905154420 | 15 | 271 | 22.5 | 49.9 | 0.00 | 0.00 | 0.00 | 100 | 903.0 |
| 20260905154305 | 15 | 269 | 20.9 | 49.9 | 0.00 | 0.00 | 0.00 | 100 | 903.1 |
| 20260905154211 | 15 | 270 | 22.5 | 49.9 | 0.00 | 0.00 | 0.00 | 100 | 903.3 |
| 20260905154057 | 15 | 271 | 24.1 | 49.9 | 0.00 | 0.00 | 0.00 | 100 | 903.6 |
| 20260905154005 | 15 | 270 | 24.1 | 51.5 | 0.00 | 0.00 | 0.00 | 100 | 903.6 |
| 20260905153848 | 15 | 270 | 24.1 | 51.5 | 0.00 | 0.00 | 0.00 | 100 | 903.5 |
| 20260905153754 | 15 | 266 | 20.9 | 51.5 | 0.00 | 0.00 | 0.00 | 100 | 903.5 |
| 20260905153640 | 15 | 268 | 19.3 | 51.5 | 0.00 | 0.00 | 0.00 | 100 | 903.8 |
| 20260905153628 | 15 | 272 | 19.3 | 51.5 | 0.00 | 0.00 | 0.00 | 100 | 903.8 |
| 20260905153538 | 15 | 272 | 19.3 | 48.3 | 0.00 | 0.00 | 0.00 | 100 | |
| 20260905153404 | 15 | 273 | 20.9 | 48.3 | 0.00 | 0.00 | 0.00 | 100 | 903.9 |
| 20260905153300 | 15 | 274 | 19.3 | 48.3 | 0.00 | 0.00 | 0.00 | 100 | 903.9 |
| 20260905153155 | 15 | 279 | 19.3 | 48.3 | 0.00 | 0.00 | 0.00 | 100 | 904.0 |
| 20260905152948 | 15 | 279 | 19.3 | 43.5 | 0.00 | 0.00 | 0.00 | 100 | 904.0 |
| 20260905152741 | 14 | 271 | 20.9 | 49.9 | 0.00 | 0.00 | 0.00 | 100 | 903.9 |
| 20260905152533 | 14 | 265 | 22.5 | 49.9 | 0.00 | 0.00 | 0.00 | 100 | 902.9 |
| 20260905152326 | 14 | 272 | 20.9 | 53.1 | 0.00 | 0.00 | 0.00 | 100 | 902.9 |
| 20260905152222 | 14 | 272 | 20.9 | 53.1 | 0.00 | 0.00 | 0.00 | 100 | |
| 20260905152047 | 14 | 269 | 22.5 | 53.1 | 0.00 | 0.00 | 0.00 | 100 | 902.6 |
| 20260905151943 | 15 | 267 | 20.9 | 43.5 | 0.00 | 0.00 | 0.00 | 100 | 902.6 |
| 20260905151838 | 15 | 264 | 20.9 | 43.5 | 0.00 | 0.00 | 0.00 | 100 | 902.6 |
| 20260905151631 | 15 | 269 | 19.3 | 43.5 | 0.00 | 0.00 | 0.00 | 100 | 903.5 |
| 20260905151424 | 15 | 269 | 17.7 | 43.5 | 0.00 | 0.00 | 0.00 | 100 | 903.8 |
| 20260905151216 | 15 | 267 | 20.9 | 43.5 | 0.00 | 0.00 | 0.00 | 100 | 903.5 |
| 20260905151009 | 15 | 268 | 20.9 | 46.7 | 0.00 | 0.00 | 0.00 | 100 | 902.9 |
| 20260905150902 | 15 | 268 | 20.9 | 46.7 | 0.00 | 0.00 | 0.00 | 100 | |
| 20260905150736 | 15 | 268 | 19.3 | 46.7 | 0.00 | 0.00 | 0.00 | 100 | 903.9 |
| 20260905150633 | 15 | 266 | 19.3 | 40.2 | 0.00 | 0.00 | 0.00 | 100 | 903.7 |
| 20260905150528 | 15 | 270 | 19.3 | 40.2 | 0.00 | 0.00 | 0.00 | 100 | 903.7 |
| 20260905150321 | 14 | 277 | 19.3 | 41.8 | 0.00 | 0.00 | 0.00 | 100 | 903.1 |
| 20260905150114 | 14 | 277 | 17.7 | 41.8 | 0.00 | 0.00 | 0.00 | 100 | 903.0 |
| 20260905145906 | 15 | 260 | 20.9 | 46.7 | 0.00 | 0.00 | 0.00 | 100 | 902.8 |
| 20260905145659 | 15 | 260 | 19.3 | 46.7 | 0.00 | 0.00 | 0.00 | 100 | |
| 20260905145555 | 15 | 263 | 19.3 | 41.8 | 0.00 | 0.00 | 0.00 | 100 | |
| 20260905145431 | 15 | 270 | 19.3 | 53.1 | 0.00 | 0.00 | 0.00 | 100 | |
| 20260905145329 | 15 | 272 | 19.3 | 53.1 | 0.00 | 0.00 | 0.00 | 100 | |
| 20260905145107 | 15 | 274 | 19.3 | 45.1 | 0.00 | 0.00 | 0.00 | 100 | |
| 20260905144838 | 14 | 267 | 19.3 | 41.8 | 0.00 | 0.00 | 0.00 | 100 | 903.6 |
| 20260905144614 | 14 | 268 | 19.3 | 41.8 | 0.00 | 0.00 | 0.00 | 100 | 902.8 |
| 20260905144511 | 14 | 268 | 17.7 | 41.8 | 0.00 | 0.00 | 0.00 | 100 | 902.7 |
| 20260905144404 | 15 | 263 | 17.7 | 41.8 | 0.00 | 0.00 | 0.00 | 100 | 902.8 |
| 20260905144156 | 15 | 262 | 19.3 | 37.0 | 0.00 | 0.00 | 0.00 | 100 | 903.3 |
| 20260905143947 | 15 | 256 | 20.9 | 43.5 | 0.00 | 0.00 | 0.00 | 100 | 903.4 |
| 20260905143738 | 15 | 254 | 22.5 | 43.5 | 0.00 | 0.00 | 0.00 | 100 | 903.5 |
| 20260905143530 | 15 | 251 | 24.1 | 43.5 | 0.00 | 0.00 | 0.00 | 100 | 903.1 |
| 20260905143427 | 15 | 251 | 24.1 | 46.7 | 0.00 | 0.00 | 0.00 | 100 | 903.7 |
| 20260905143320 | 15 | 251 | 27.4 | 46.7 | 0.00 | 0.00 | 0.00 | 100 | 903.6 |
| 20260905143112 | 15 | 250 | 22.5 | 48.3 | 0.00 | 0.00 | 0.00 | 100 | 904.0 |
| 20260905142925 | 15 | 258 | 17.7 | 48.3 | 0.00 | 0.00 | 0.00 | 100 | 904.1 |
| 20260905142914 | 15 | 258 | 17.7 | 48.3 | 0.00 | 0.00 | 0.00 | 100 | 904.0 |
| 20260905142705 | 14 | 274 | 16.1 | 37.0 | 0.00 | 0.00 | 0.00 | 100 | 903.9 |
| 20260905142457 | 13 | 280 | 19.3 | 46.7 | 0.00 | 0.00 | 0.00 | 100 | 903.3 |
| 20260905142354 | 13 | 276 | 19.3 | 46.7 | 0.00 | 0.00 | 0.00 | 100 | 903.2 |
| 20260905142247 | 13 | 277 | 19.3 | 46.7 | 0.00 | 0.00 | 0.00 | 100 | 903.1 |
| 20260905142039 | 13 | 275 | 19.3 | 38.6 | 0.00 | 0.00 | 0.00 | 100 | 903.0 |
| 20260905141830 | 13 | 284 | 22.5 | 53.1 | 0.00 | 0.00 | 0.00 | 100 | 902.8 |
| 20260905141621 | 14 | 284 | 19.3 | 53.1 | 0.00 | 0.00 | 0.00 | 100 | 902.7 |
| 20260905141424 | 14 | 273 | 19.3 | 38.6 | 0.00 | 0.00 | 0.00 | 100 | 902.9 |
| 20260905141413 | 14 | 273 | 19.3 | 38.6 | 0.00 | 0.00 | 0.00 | 100 | 902.8 |
| 20260905141310 | 14 | 260 | 20.9 | 38.6 | 0.00 | 0.00 | 0.00 | 100 | 902.8 |
| 20260905141214 | 14 | 259 | 20.9 | 38.6 | 0.00 | 0.00 | 0.00 | 100 | 902.9 |
| 20260905141006 | 14 | 260 | 19.3 | 38.6 | 0.00 | 0.00 | 0.00 | 100 | 903.6 |
| 20260905140757 | 15 | 264 | 19.3 | 38.6 | 0.00 | 0.00 | 0.00 | 100 | 904.0 |
| 20260905140548 | 14 | 266 | 19.3 | 38.6 | 0.00 | 0.00 | 0.00 | 100 | 904.4 |
| 20260905140412 | 14 | 270 | 17.7 | 40.2 | 0.00 | 0.00 | 0.00 | 100 | 904.3 |
| 20260905140344 | 14 | 270 | 17.7 | 40.2 | 0.00 | 0.00 | 0.00 | 100 | |
| 20260905140237 | 14 | 268 | 19.3 | 40.2 | 0.00 | 0.00 | 0.00 | 100 | |
| 20260905140022 | 13 | 264 | 17.7 | 38.6 | 0.00 | 0.00 | 0.00 | 100 | |
| 20260905135915 | 13 | 260 | 17.7 | 32.2 | 0.00 | 0.00 | 0.00 | 100 | |
| 20260905135748 | 13 | 260 | 19.3 | 32.2 | 0.00 | 0.00 | 0.00 | 100 | 903.6 |
| 20260905135522 | 13 | 266 | 19.3 | 37.0 | 0.00 | 0.00 | 0.00 | 100 | 903.3 |
| 20260905135356 | 13 | 268 | 17.7 | 35.4 | 0.00 | 0.00 | 0.00 | 100 | 903.0 |
| 20260905135316 | 13 | 268 | 17.7 | 35.4 | 0.00 | 0.00 | 0.00 | 100 | 903.0 |
| 20260905135206 | 13 | 264 | 19.3 | 38.6 | 0.00 | 0.00 | 0.00 | 100 | 902.9 |
| 20260905135100 | 13 | 265 | 20.9 | 43.5 | 0.00 | 0.00 | 0.00 | 100 | 903.1 |
| 20260905134852 | 13 | 265 | 20.9 | 43.5 | 0.00 | 0.00 | 0.00 | 100 | 903.4 |
| 20260905134643 | 13 | 256 | 20.9 | 38.6 | 0.00 | 0.00 | 0.00 | 100 | 903.3 |
| 20260905134445 | 14 | 257 | 17.7 | 37.0 | 0.00 | 0.00 | 0.00 | 100 | 903.2 |
| 20260905134434 | 14 | 257 | 17.7 | 37.0 | 0.00 | 0.00 | 0.00 | 100 | 904.1 |
| 20260905134226 | 13 | 259 | 17.7 | 37.0 | 0.00 | 0.00 | 0.00 | 100 | 904.2 |
| 20260905134123 | 13 | 259 | 19.3 | 37.0 | 0.00 | 0.00 | 0.00 | 100 | 903.9 |
| 20260905134027 | 13 | 257 | 20.9 | 38.6 | 0.00 | 0.00 | 0.00 | 100 | 902.8 |
| 20260905133819 | 13 | 257 | 19.3 | 38.6 | 0.00 | 0.00 | 0.00 | 100 | 902.9 |
| 20260905133610 | 13 | 268 | 17.7 | 38.6 | 0.00 | 0.00 | 0.00 | 100 | 903.9 |
| 20260905133442 | 13 | 268 | 19.3 | 37.0 | 0.00 | 0.00 | 0.00 | 100 | 903.8 |
| 20260905133355 | 13 | 265 | 20.9 | 37.0 | 0.00 | 0.00 | 0.00 | 100 | 904.0 |
| 20260905133151 | 13 | 259 | 19.3 | 37.0 | 0.00 | 0.00 | 0.00 | 100 | 904.0 |
| 20260905133048 | 13 | 261 | 17.7 | 37.0 | 0.00 | 0.00 | 0.00 | 100 | 904.0 |
| 20260905132941 | 13 | 260 | 16.1 | 38.6 | 0.00 | 0.00 | 0.00 | 100 | 903.9 |
| 20260905132733 | 13 | 258 | 19.3 | 33.8 | 0.00 | 0.00 | 0.00 | 100 | 903.3 |
| 20260905132524 | 13 | 256 | 20.9 | 33.8 | 0.00 | 0.00 | 0.00 | 100 | 903.1 |
| 20260905132316 | 13 | 257 | 20.9 | 33.8 | 0.00 | 0.00 | 0.00 | 100 | 903.0 |
| 20260905132119 | 13 | 255 | 20.9 | 43.5 | 0.00 | 0.00 | 0.00 | 100 | 902.8 |
| 20260905132107 | 13 | 255 | 20.9 | 43.5 | 0.00 | 0.00 | 0.00 | 100 | |
| 20260905132055 | 13 | 253 | 20.9 | 43.5 | 0.00 | 0.00 | 0.00 | 100 | |
| 20260905132008 | 13 | 253 | 20.9 | 43.5 | 0.00 | 0.00 | 0.00 | 100 | |
| 20260905131822 | 13 | 253 | 20.9 | 35.4 | 0.00 | 0.00 | 0.00 | 100 | 903.4 |
| 20260905131608 | 13 | 256 | 22.5 | 35.4 | 0.00 | 0.00 | 0.00 | 100 | 907.9 |
| 20260905131520 | 13 | 257 | 24.1 | 38.6 | 0.00 | 0.00 | 0.00 | 100 | 902.7 |
| 20260905131400 | 13 | 253 | 22.5 | 38.6 | 0.00 | 0.00 | 0.00 | 100 | 902.6 |
| 20260905131306 | 13 | 249 | 24.1 | 41.8 | 0.00 | 0.00 | 0.00 | 100 | 902.7 |
| 20260905131201 | 13 | 248 | 25.7 | 43.5 | 0.00 | 0.00 | 0.00 | 100 | 903.1 |
| 20260905131107 | 13 | 246 | 29.0 | 43.5 | 0.00 | 0.00 | 0.00 | 100 | 903.3 |
| 20260905130952 | 13 | 246 | 29.0 | 43.5 | 0.00 | 0.00 | 0.00 | 100 | 903.4 |
| 20260905130859 | 13 | 248 | 25.7 | 43.5 | 0.00 | 0.00 | 0.00 | 100 | 903.7 |
| 20260905130846 | 13 | 249 | 25.7 | 43.5 | 0.00 | 0.00 | 0.00 | 100 | 903.7 |
| 20260905130736 | 13 | 249 | 25.7 | 38.6 | 0.00 | 0.00 | 0.00 | 100 | 903.9 |
| 20260905130522 | 13 | 252 | 25.7 | 38.6 | 0.00 | 0.00 | 0.00 | 100 | 903.8 |
| 20260905130439 | 13 | 252 | 25.7 | 38.6 | 0.00 | 0.00 | 0.00 | 100 | 903.8 |
| 20260905130324 | 13 | 253 | 24.1 | 37.0 | 0.00 | 0.00 | 0.00 | 100 | 903.4 |
| 20260905130220 | 13 | 254 | 22.5 | 37.0 | 0.00 | 0.00 | 0.00 | 100 | 903.0 |
| 20260905130115 | 13 | 251 | 24.1 | 33.8 | 0.00 | 0.00 | 0.00 | 100 | 902.5 |
| 20260905130022 | 13 | 252 | 22.5 | 41.8 | 0.00 | 0.00 | 0.00 | 100 | 902.6 |
| 20260905125906 | 13 | 253 | 20.9 | 41.8 | 0.00 | 0.00 | 0.00 | 100 | 902.7 |
| 20260905125813 | 13 | 253 | 19.3 | 41.8 | 0.00 | 0.00 | 0.00 | 100 | 903.2 |
| 20260905125657 | 13 | 258 | 19.3 | 41.8 | 0.00 | 0.00 | 0.00 | 100 | 903.7 |
| 20260905125603 | 13 | 256 | 19.3 | 41.8 | 0.00 | 0.00 | 0.00 | 100 | 903.9 |
| 20260905125448 | 14 | 256 | 20.9 | 33.8 | 0.00 | 0.00 | 0.00 | 100 | 904.0 |
| 20260905125355 | 14 | 255 | 20.9 | 33.8 | 0.00 | 0.00 | 0.00 | 100 | 903.8 |
| 20260905125240 | 14 | 255 | 19.3 | 33.8 | 0.00 | 0.00 | 0.00 | 100 | 904.3 |
| 20260905125147 | 14 | 253 | 19.3 | 33.8 | 0.00 | 0.00 | 0.00 | 100 | 904.3 |
| 20260905125135 | 13 | 253 | 19.3 | 33.8 | 0.00 | 0.00 | 0.00 | 100 | 904.3 |
| 20260905125030 | 13 | 254 | 17.7 | 35.4 | 0.00 | 0.00 | 0.00 | 100 | 904.3 |
| 20260905124936 | 13 | 256 | 17.7 | 38.6 | 0.00 | 0.00 | 0.00 | 100 | 904.2 |
| 20260905124822 | 13 | 260 | 16.1 | 38.6 | 0.00 | 0.00 | 0.00 | 100 | 903.1 |
| 20260905124739 | 13 | 262 | 16.1 | 38.6 | 0.00 | 0.00 | 0.00 | 100 | 903.2 |
| 20260905124624 | 13 | 265 | 16.1 | 38.6 | 0.00 | 0.00 | 0.00 | 100 | 903.2 |
| 20260905124530 | 13 | 265 | 17.7 | 38.6 | 0.00 | 0.00 | 0.00 | 100 | 903.6 |
| 20260905124415 | 13 | 268 | 17.7 | 38.6 | 0.00 | 0.00 | 0.00 | 100 | 903.9 |
| 20260905124323 | 13 | 267 | 17.7 | 38.6 | 0.00 | 0.00 | 0.00 | 100 | 903.4 |
| 20260905124207 | 13 | 270 | 14.5 | 33.8 | 0.00 | 0.00 | 0.00 | 100 | 903.2 |
| 20260905124113 | 13 | 268 | 12.9 | 29.0 | 0.00 | 0.00 | 0.00 | 100 | 903.2 |
| 20260905124102 | 13 | 268 | 12.9 | 29.0 | 0.00 | 0.00 | 0.00 | 100 | 904.0 |
| 20260905123957 | 13 | 262 | 14.5 | 27.4 | 0.00 | 0.00 | 0.00 | 100 | 904.0 |
| 20260905123903 | 13 | 261 | 12.9 | 27.4 | 0.00 | 0.00 | 0.00 | 100 | 904.0 |
| 20260905123749 | 13 | 257 | 12.9 | 27.4 | 0.00 | 0.00 | 0.00 | 100 | 903.5 |
| 20260905123656 | 13 | 257 | 14.5 | 29.0 | 0.00 | 0.00 | 0.00 | 100 | 903.5 |
| 20260905123540 | 13 | 257 | 16.1 | 29.0 | 0.00 | 0.00 | 0.00 | 100 | 903.5 |
| 20260905123446 | 13 | 253 | 17.7 | 32.2 | 0.00 | 0.00 | 0.00 | 100 | 903.4 |
| 20260905123331 | 13 | 254 | 17.7 | 32.2 | 0.00 | 0.00 | 0.00 | 100 | 903.7 |
| 20260905123258 | 13 | 250 | 19.3 | 33.8 | 0.00 | 0.00 | 0.00 | 100 | 902.9 |
| 20260905123123 | 13 | 251 | 19.3 | 33.8 | 0.00 | 0.00 | 0.00 | 100 | 903.1 |
| 20260905123029 | 13 | 251 | 19.3 | 33.8 | 0.00 | 0.00 | 0.00 | 100 | 903.5 |
| 20260905122924 | 13 | 250 | 20.9 | 37.0 | 0.00 | 0.00 | 0.00 | 100 | 903.2 |
| 20260905122830 | 13 | 252 | 20.9 | 37.0 | 0.00 | 0.00 | 0.00 | 100 | 903.2 |
| 20260905122715 | 13 | 253 | 22.5 | 37.0 | 0.00 | 0.00 | 0.00 | 100 | 903.2 |
| 20260905122622 | 13 | 253 | 24.1 | 38.6 | 0.00 | 0.00 | 0.00 | 100 | 903.2 |
| 20260905122507 | 13 | 254 | 22.5 | 38.6 | 0.00 | 0.00 | 0.00 | 100 | 903.0 |
| 20260905122412 | 13 | 255 | 22.5 | 41.8 | 0.00 | 0.00 | 0.00 | 100 | 903.6 |
| 20260905122258 | 13 | 256 | 22.5 | 41.8 | 0.00 | 0.00 | 0.00 | 100 | 904.2 |
| 20260905122205 | 13 | 257 | 22.5 | 41.8 | 0.00 | 0.00 | 0.00 | 100 | 904.2 |
| 20260905122049 | 13 | 254 | 22.5 | 41.8 | 0.00 | 0.00 | 0.00 | 100 | 903.8 |
| 20260905121945 | 13 | 253 | 22.5 | 35.4 | 0.00 | 0.00 | 0.00 | 100 | 903.8 |
| 20260905121840 | 13 | 251 | 20.9 | 33.8 | 0.00 | 0.00 | 0.00 | 100 | 904.0 |
| 20260905121746 | 13 | 253 | 20.9 | 33.8 | 0.00 | 0.00 | 0.00 | 100 | 903.7 |
| 20260905121632 | 13 | 253 | 20.9 | 33.8 | 0.00 | 0.00 | 0.00 | 100 | 903.6 |
| 20260905121538 | 13 | 255 | 20.9 | 32.2 | 0.00 | 0.00 | 0.00 | 100 | 903.5 |
| 20260905121423 | 13 | 257 | 19.3 | 32.2 | 0.00 | 0.00 | 0.00 | 100 | 903.6 |
| 20260905121342 | 13 | 259 | 19.3 | 32.2 | 0.00 | 0.00 | 0.00 | 100 | 903.6 |
| 20260905121224 | 13 | 259 | 16.1 | 32.2 | 0.00 | 0.00 | 0.00 | 100 | 903.7 |
| 20260905121131 | 13 | 261 | 14.5 | 32.2 | 0.00 | 0.00 | 0.00 | 100 | 902.9 |
| 20260905121104 | 13 | 284 | 14.5 | 32.2 | 0.00 | 0.00 | 0.00 | 100 | 903.4 |
| 20260905121016 | 13 | 271 | 14.5 | 32.2 | 0.00 | 0.00 | 0.00 | 100 | 903.1 |
| 20260905120912 | 13 | 284 | 14.5 | 32.2 | 0.00 | 0.00 | 0.00 | 100 | 903.4 |
| 20260905120807 | 13 | 286 | 14.5 | 37.0 | 0.00 | 0.00 | 0.00 | 100 | 903.5 |
| 20260905120713 | 13 | 283 | 14.5 | 37.0 | 0.00 | 0.00 | 0.00 | 100 | 904.0 |
| 20260905120558 | 13 | 277 | 14.5 | 37.0 | 0.00 | 0.00 | 0.00 | 100 | 903.7 |
| 20260905120505 | 13 | 283 | 16.1 | 37.0 | 0.00 | 0.00 | 0.00 | 100 | 903.2 |
| 20260905120350 | 13 | 281 | 16.1 | 33.8 | 0.00 | 0.00 | 0.00 | 100 | 903.2 |
| 20260905120256 | 13 | 284 | 16.1 | 33.8 | 0.00 | 0.00 | 0.00 | 100 | 903.2 |
| 20260905120140 | 13 | 281 | 16.1 | 33.8 | 0.00 | 0.00 | 0.00 | 100 | 902.7 |
| 20260905120048 | 13 | 273 | 14.5 | 33.8 | 0.00 | 0.00 | 0.00 | 100 | 902.7 |
| 20260905115932 | 13 | 272 | 16.1 | 33.8 | 0.00 | 0.00 | 0.00 | 100 | 903.2 |
| 20260905115827 | 13 | 263 | 17.7 | 35.4 | 0.00 | 0.00 | 0.00 | 100 | 903.6 |
| 20260905115722 | 13 | 263 | 19.3 | 35.4 | 0.00 | 0.00 | 0.00 | 100 | 903.6 |
| 20260905115639 | 13 | 260 | 19.3 | 35.4 | 0.00 | 0.00 | 0.00 | 100 | 902.8 |
| 20260905115616 | 13 | 260 | 20.9 | 35.4 | 0.00 | 0.00 | 0.00 | 100 | 902.8 |
| 20260905115517 | 13 | 261 | 19.3 | 38.6 | 0.00 | 0.00 | 0.00 | 100 | 903.6 |
| 20260905115306 | 13 | 258 | 16.1 | 38.6 | 0.00 | 0.00 | 0.00 | 100 | 904.2 |
| 20260905115219 | 13 | 255 | 16.1 | 38.6 | 0.00 | 0.00 | 0.00 | 100 | 904.2 |
| 20260905115054 | 13 | 255 | 16.1 | 38.6 | 0.00 | 0.00 | 0.00 | 100 | 904.1 |
| 20260905115010 | 13 | 257 | 16.1 | 38.6 | 0.00 | 0.00 | 0.00 | 100 | 904.0 |
| 20260905114846 | 13 | 258 | 17.7 | 40.2 | 0.00 | 0.00 | 0.00 | 100 | 903.6 |
| 20260905114753 | 13 | 263 | 16.1 | 40.2 | 0.00 | 0.00 | 0.00 | 100 | 903.6 |
| 20260905114647 | 13 | 263 | 17.7 | 40.2 | 0.00 | 0.00 | 0.00 | 100 | 903.2 |
| 20260905114553 | 13 | 260 | 19.3 | 40.2 | 0.00 | 0.00 | 0.00 | 100 | 903.0 |
| 20260905114439 | 13 | 257 | 19.3 | 41.8 | 0.00 | 0.00 | 0.00 | 100 | 902.6 |
| 20260905114349 | 13 | 257 | 22.5 | 41.8 | 0.00 | 0.00 | 0.00 | 100 | 902.8 |
| 20260905114230 | 13 | 256 | 22.5 | 41.8 | 0.00 | 0.00 | 0.00 | 100 | 903.4 |
| 20260905114136 | 13 | 255 | 22.5 | 41.8 | 0.00 | 0.00 | 0.00 | 100 | 903.4 |
| 20260905114021 | 13 | 255 | 22.5 | 41.8 | 0.00 | 0.00 | 0.00 | 100 | 903.7 |
| 20260905113929 | 13 | 256 | 22.5 | 38.6 | 0.00 | 0.00 | 0.00 | 100 | 903.3 |
| 20260905113813 | 13 | 256 | 20.9 | 35.4 | 0.00 | 0.00 | 0.00 | 100 | 903.4 |
| 20260905113719 | 13 | 258 | 20.9 | 35.4 | 0.00 | 0.00 | 0.00 | 100 | 903.4 |
| 20260905113708 | 13 | 258 | 20.9 | 35.4 | 0.00 | 0.00 | 0.00 | 100 | 903.4 |
| 20260905113603 | 13 | 257 | 20.9 | 33.8 | 0.00 | 0.00 | 0.00 | 100 | 903.3 |
| 20260905113511 | 13 | 258 | 20.9 | 33.8 | 0.00 | 0.00 | 0.00 | 100 | 903.3 |
| 20260905113355 | 13 | 259 | 19.3 | 33.8 | 0.00 | 0.00 | 0.00 | 100 | 903.3 |
| 20260905113302 | 13 | 260 | 17.7 | 33.8 | 0.00 | 0.00 | 0.00 | 100 | 903.7 |
| 20260905113146 | 13 | 262 | 16.1 | 32.2 | 0.00 | 0.00 | 0.00 | 100 | 903.9 |
| 20260905113104 | 13 | 263 | 14.5 | 30.6 | 0.00 | 0.00 | 0.00 | 100 | 903.8 |
| 20260905112948 | 13 | 266 | 14.5 | 32.2 | 0.00 | 0.00 | 0.00 | 100 | 903.8 |
| 20260905112854 | 13 | 266 | 16.1 | 35.4 | 0.00 | 0.00 | 0.00 | 100 | 903.9 |
| 20260905112740 | 13 | 264 | 16.1 | 38.6 | 0.00 | 0.00 | 0.00 | 100 | 903.6 |
| 20260905112635 | 13 | 262 | 17.7 | 38.6 | 0.00 | 0.00 | 0.00 | 100 | 903.6 |
| 20260905112530 | 13 | 262 | 17.7 | 38.6 | 0.00 | 0.00 | 0.00 | 100 | 904.0 |
| 20260905112436 | 13 | 261 | 16.1 | 32.2 | 0.00 | 0.00 | 0.00 | 100 | 904.0 |
| 20260905112322 | 13 | 262 | 16.1 | 32.2 | 0.00 | 0.00 | 0.00 | 100 | 904.0 |
| 20260905112228 | 13 | 259 | 17.7 | 30.6 | 0.00 | 0.00 | 0.00 | 100 | 903.8 |
| 20260905112113 | 13 | 259 | 19.3 | 33.8 | 0.00 | 0.00 | 0.00 | 100 | 904.1 |
| 20260905112019 | 13 | 259 | 19.3 | 33.8 | 0.00 | 0.00 | 0.00 | 100 | 903.8 |
| 20260905111904 | 12 | 259 | 19.3 | 35.4 | 0.00 | 0.00 | 0.00 | 100 | 903.7 |
| 20260905111812 | 12 | 260 | 19.3 | 35.4 | 0.00 | 0.00 | 0.00 | 100 | 903.5 |
| 20260905111656 | 12 | 260 | 19.3 | 35.4 | 0.00 | 0.00 | 0.00 | 100 | 903.8 |
| 20260905111551 | 12 | 259 | 20.9 | 35.4 | 0.00 | 0.00 | 0.00 | 100 | 903.5 |
| 20260905111446 | 12 | 258 | 19.3 | 32.2 | 0.00 | 0.00 | 0.00 | 100 | 903.3 |
| 20260905111403 | 12 | 257 | 19.3 | 32.2 | 0.00 | 0.00 | 0.00 | 100 | 902.5 |
| 20260905111248 | 12 | 258 | 17.7 | 32.2 | 0.00 | 0.00 | 0.00 | 100 | 902.3 |
| 20260905111156 | 12 | 263 | 16.1 | 32.2 | 0.00 | 0.00 | 0.00 | 100 | 902.3 |
| 20260905111040 | 12 | 265 | 17.7 | 32.2 | 0.00 | 0.00 | 0.00 | 100 | 902.2 |
| 20260905110946 | 12 | 268 | 17.7 | 32.2 | 0.00 | 0.00 | 0.00 | 100 | 902.8 |
| 20260905110831 | 12 | 264 | 17.7 | 32.2 | 0.00 | 0.00 | 0.00 | 100 | 902.8 |
| 20260905110737 | 12 | 267 | 16.1 | 35.4 | 0.00 | 0.00 | 0.00 | 100 | 902.7 |
| 20260905110622 | 12 | 269 | 16.1 | 35.4 | 0.00 | 0.00 | 0.00 | 100 | 902.5 |
| 20260905110517 | 12 | 274 | 16.1 | 38.6 | 0.00 | 0.00 | 0.00 | 100 | 903.9 |
| 20260905110412 | 12 | 272 | 14.5 | 38.6 | 0.00 | 0.00 | 0.00 | 100 | 905.8 |
| 20260905110318 | 12 | 275 | 16.1 | 38.6 | 0.00 | 0.00 | 0.00 | 100 | 905.9 |
| 20260905110204 | 12 | 274 | 14.5 | 38.6 | 0.00 | 0.00 | 0.00 | 100 | 905.2 |
| 20260905110110 | 12 | 277 | 14.5 | 38.6 | 0.00 | 0.00 | 0.00 | 100 | 907.7 |
| 20260905105955 | 12 | 276 | 16.1 | 38.6 | 0.00 | 0.00 | 0.00 | 100 | 903.2 |
| 20260905105901 | 12 | 281 | 19.3 | 35.4 | 0.00 | 0.00 | 0.00 | 100 | 903.2 |
| 20260905105746 | 12 | 280 | 19.3 | 35.4 | 0.00 | 0.00 | 0.00 | 100 | 902.6 |
| 20260905105703 | 12 | 277 | 17.7 | 35.4 | 0.00 | 0.00 | 0.00 | 100 | 902.6 |
| 20260905105549 | 12 | 275 | 19.3 | 37.0 | 0.00 | 0.00 | 0.00 | 100 | 902.8 |
| 20260905105444 | 12 | 264 | 19.3 | 38.6 | 0.00 | 0.00 | 0.00 | 100 | 903.5 |
| 20260905105339 | 12 | 261 | 19.3 | 38.6 | 0.00 | 0.00 | 0.00 | 100 | 903.2 |
| 20260905105246 | 12 | 260 | 20.9 | 38.6 | 0.00 | 0.00 | 0.00 | 100 | 903.2 |
| 20260905105131 | 12 | 261 | 19.3 | 38.6 | 0.00 | 0.00 | 0.00 | 100 | 903.0 |
| 20260905105037 | 12 | 265 | 17.7 | 38.6 | 0.00 | 0.00 | 0.00 | 100 | 903.0 |
| 20260905104922 | 12 | 270 | 17.7 | 38.6 | 0.00 | 0.00 | 0.00 | 100 | 902.9 |
| 20260905104827 | 13 | 270 | 17.7 | 33.8 | 0.00 | 0.00 | 0.00 | 100 | 903.3 |
| 20260905104708 | 13 | 267 | 19.3 | 35.4 | 0.00 | 0.00 | 0.00 | 100 | 903.2 |
| 20260905104615 | 13 | 263 | 19.3 | 35.4 | 0.00 | 0.00 | 0.00 | 100 | 903.2 |
| 20260905104500 | 13 | 260 | 20.9 | 40.2 | 0.00 | 0.00 | 0.00 | 100 | 903.2 |
| 20260905104406 | 13 | 270 | 17.7 | 40.2 | 0.00 | 0.00 | 0.00 | 100 | 903.2 |
| 20260905104301 | 13 | 275 | 19.3 | 40.2 | 0.00 | 0.00 | 0.00 | 100 | 903.1 |
| 20260905104207 | 13 | 280 | 17.7 | 40.2 | 0.00 | 0.00 | 0.00 | 100 | 903.4 |
| 20260905104053 | 13 | 283 | 17.7 | 35.4 | 0.00 | 0.00 | 0.00 | 100 | 903.4 |
| 20260905103959 | 13 | 280 | 16.1 | 35.4 | 0.00 | 0.00 | 0.00 | 100 | 903.1 |
| 20260905103844 | 13 | 267 | 16.1 | 32.2 | 0.00 | 0.00 | 0.00 | 100 | 903.5 |
| 20260905103752 | 13 | 270 | 16.1 | 32.2 | 0.00 | 0.00 | 0.00 | 100 | 903.6 |
| 20260905103635 | 13 | 268 | 16.1 | 48.3 | 0.00 | 0.00 | 0.00 | 100 | 903.5 |
| 20260905103545 | 13 | 269 | 16.1 | 48.3 | 0.00 | 0.00 | 0.00 | 100 | 903.3 |
| 20260905103427 | 12 | 276 | 16.1 | 48.3 | 0.00 | 0.00 | 0.00 | 100 | 903.0 |
| 20260905103337 | 12 | 280 | 16.1 | 48.3 | 0.00 | 0.00 | 0.00 | 100 | 903.0 |
| 20260905103322 | 12 | 280 | 16.1 | 48.3 | 0.00 | 0.00 | 0.00 | 100 | 903.5 |
| 20260905103217 | 12 | 281 | 16.1 | 37.0 | 0.00 | 0.00 | 0.00 | 100 | 903.5 |
| 20260905103123 | 12 | 284 | 20.9 | 43.5 | 0.00 | 0.00 | 0.00 | 100 | 903.2 |
| 20260905103009 | 12 | 284 | 22.5 | 43.5 | 0.00 | 0.00 | 0.00 | 100 | 903.2 |
| 20260905102915 | 12 | 287 | 22.5 | 43.5 | 0.00 | 0.00 | 0.00 | 100 | 904.3 |
| 20260905102800 | 12 | 283 | 22.5 | 43.5 | 0.00 | 0.00 | 0.00 | 100 | 906.6 |
| 20260905102717 | 12 | 277 | 19.3 | 43.5 | 0.00 | 0.00 | 0.00 | 100 | 901.4 |
| 20260905102602 | 12 | 270 | 19.3 | 37.0 | 0.00 | 0.00 | 0.00 | 100 | 901.3 |
| 20260905102508 | 12 | 260 | 19.3 | 37.0 | 0.00 | 0.00 | 0.00 | 100 | 901.4 |
| 20260905102353 | 12 | 259 | 19.3 | 35.4 | 0.00 | 0.00 | 0.00 | 100 | 901.7 |
| 20260905102300 | 12 | 261 | 20.9 | 40.2 | 0.00 | 0.00 | 0.00 | 100 | 901.7 |
| 20260905102249 | 12 | 261 | 20.9 | 40.2 | 0.00 | 0.00 | 0.00 | 100 | 902.8 |
| 20260905102144 | 11 | 259 | 22.5 | 40.2 | 0.00 | 0.00 | 0.00 | 100 | 904.5 |
| 20260905102051 | 11 | 260 | 24.1 | 43.5 | 0.00 | 0.00 | 0.00 | 100 | 904.5 |
| 20260905101935 | 11 | 257 | 24.1 | 43.5 | 0.00 | 0.00 | 0.00 | 100 | 907.8 |
| 20260905101842 | 11 | 257 | 20.9 | 43.5 | 0.00 | 0.00 | 0.00 | 100 | 901.2 |
| 20260905101727 | 12 | 260 | 19.3 | 43.5 | 0.00 | 0.00 | 0.00 | 100 | 901.8 |
| 20260905101633 | 12 | 262 | 17.7 | 37.0 | 0.00 | 0.00 | 0.00 | 100 | 902.1 |
| 20260905101518 | 11 | 262 | 17.7 | 37.0 | 0.00 | 0.00 | 0.00 | 100 | 903.0 |
| 20260905101424 | 11 | 265 | 17.7 | 37.0 | 0.00 | 0.00 | 0.00 | 100 | 904.0 |
| 20260905101309 | 12 | 264 | 17.7 | 37.0 | 0.00 | 0.00 | 0.00 | 100 | 907.7 |
| 20260905101208 | 12 | 269 | 16.1 | 37.0 | 0.00 | 0.00 | 0.00 | 100 | 902.1 |
| 20260905101059 | 12 | 268 | 16.1 | 37.0 | 0.00 | 0.00 | 0.00 | 100 | 906.5 |
| 20260905101016 | 12 | 266 | 17.7 | 37.0 | 0.00 | 0.00 | 0.00 | 100 | 906.5 |
| 20260905100902 | 12 | 253 | 19.3 | 38.6 | 0.00 | 0.00 | 0.00 | 100 | 902.0 |
| 20260905100807 | 12 | 252 | 22.5 | 38.6 | 0.00 | 0.00 | 0.00 | 100 | 902.0 |
| 20260905100653 | 12 | 249 | 25.7 | 38.6 | 0.00 | 0.00 | 0.00 | 100 | 901.8 |
| 20260905100559 | 12 | 248 | 25.7 | 38.6 | 0.00 | 0.00 | 0.00 | 100 | 902.3 |
| 20260905100444 | 12 | 249 | 27.4 | 38.6 | 0.00 | 0.00 | 0.00 | 100 | 903.3 |
| 20260905100350 | 12 | 250 | 27.4 | 40.2 | 0.00 | 0.00 | 0.00 | 100 | 905.9 |
| 20260905100235 | 12 | 249 | 29.0 | 49.9 | 0.00 | 0.00 | 0.00 | 100 | 901.8 |
| 20260905100131 | 11 | 249 | 30.6 | 49.9 | 0.00 | 0.00 | 0.00 | 100 | 901.3 |
| 20260905100026 | 11 | 250 | 30.6 | 49.9 | 0.00 | 0.00 | 0.00 | 100 | 901.1 |
| 20260905095932 | 12 | 249 | 32.2 | 49.9 | 0.00 | 0.00 | 0.00 | 100 | 902.1 |
| 20260905095818 | 12 | 252 | 29.0 | 49.9 | 0.00 | 0.00 | 0.00 | 100 | 905.1 |
| 20260905095724 | 12 | 252 | 27.4 | 46.7 | 0.00 | 0.00 | 0.00 | 100 | 908.1 |
| 20260905095609 | 11 | 254 | 24.1 | 46.7 | 0.00 | 0.00 | 0.00 | 100 | 903.5 |
| 20260905095515 | 11 | 255 | 24.1 | 40.2 | 0.00 | 0.00 | 0.00 | 100 | 903.5 |
| 20260905095400 | 11 | 254 | 24.1 | 40.2 | 0.00 | 0.00 | 0.00 | 100 | 901.3 |
| 20260905095317 | 12 | 254 | 24.1 | 40.2 | 0.00 | 0.00 | 0.00 | 100 | 901.5 |
| 20260905095202 | 12 | 255 | 22.5 | 40.2 | 0.00 | 0.00 | 0.00 | 100 | 901.5 |
| 20260905095058 | 11 | 257 | 22.5 | 37.0 | 0.00 | 0.00 | 0.00 | 100 | 904.6 |
| 20260905094953 | 11 | 258 | 20.9 | 37.0 | 0.00 | 0.00 | 0.00 | 100 | 906.1 |
| 20260905094859 | 11 | 257 | 19.3 | 40.2 | 0.00 | 0.00 | 0.00 | 100 | 901.0 |
| 20260905094744 | 11 | 257 | 20.9 | 40.2 | 0.00 | 0.00 | 0.00 | 100 | 901.8 |
| 20260905094650 | 11 | 252 | 22.5 | 41.8 | 0.00 | 0.00 | 0.00 | 100 | 903.8 |
| 20260905094536 | 11 | 250 | 25.7 | 46.7 | 0.00 | 0.00 | 0.00 | 100 | 906.0 |
| 20260905094443 | 11 | 249 | 30.6 | 45.1 | 0.00 | 0.00 | 0.00 | 100 | 906.0 |
| 20260905094327 | 11 | 248 | 30.6 | 45.1 | 0.00 | 0.00 | 0.00 | 100 | 900.5 |
| 20260905094234 | 11 | 250 | 29.0 | 45.1 | 0.00 | 0.00 | 0.00 | 100 | 900.5 |
| 20260905094118 | 11 | 252 | 25.7 | 45.1 | 0.00 | 0.00 | 0.00 | 100 | 900.3 |
| 20260905094014 | 11 | 254 | 25.7 | 48.3 | 0.00 | 0.00 | 0.00 | 100 | 900.4 |
| 20260905093909 | 11 | 255 | 27.4 | 45.1 | 0.00 | 0.00 | 0.00 | 100 | 903.7 |
| 20260905093819 | 11 | 254 | 27.4 | 45.1 | 0.00 | 0.00 | 0.00 | 100 | 909.7 |
| 20260905093701 | 11 | 255 | 27.4 | 45.1 | 0.00 | 0.00 | 0.00 | 100 | 904.5 |
| 20260905093618 | 11 | 254 | 25.7 | 45.1 | 0.00 | 0.00 | 0.00 | 100 | 901.3 |
| 20260905093503 | 11 | 254 | 25.7 | 43.5 | 0.00 | 0.00 | 0.00 | 100 | 902.5 |
| 20260905093408 | 11 | 254 | 24.1 | 41.8 | 0.00 | 0.00 | 0.00 | 100 | 905.6 |
| 20260905093254 | 11 | 253 | 25.7 | 41.8 | 0.00 | 0.00 | 0.00 | 100 | 901.8 |
| 20260905093202 | 11 | 251 | 27.4 | 43.5 | 0.00 | 0.00 | 0.00 | 100 | 901.8 |
| 20260905093045 | 11 | 250 | 29.0 | 43.5 | 0.00 | 0.00 | 0.00 | 100 | 905.3 |
| 20260905092951 | 11 | 251 | 27.4 | 43.5 | 0.00 | 0.00 | 0.00 | 100 | 901.3 |
| 20260905092836 | 11 | 252 | 25.7 | 43.5 | 0.00 | 0.00 | 0.00 | 100 | 901.3 |
| 20260905092742 | 11 | 254 | 24.1 | 38.6 | 0.00 | 0.00 | 0.00 | 100 | 902.5 |
| 20260905092627 | 11 | 254 | 22.5 | 35.4 | 0.00 | 0.00 | 0.00 | 100 | 901.2 |
| 20260905092540 | 11 | 255 | 22.5 | 35.4 | 0.00 | 0.00 | 0.00 | 100 | 901.2 |
| 20260905092419 | 11 | 255 | 22.5 | 35.4 | 0.00 | 0.00 | 0.00 | 100 | 901.9 |
| 20260905092325 | 11 | 254 | 22.5 | 35.4 | 0.00 | 0.00 | 0.00 | 100 | 905.2 |
| 20260905092210 | 11 | 254 | 20.9 | 37.0 | 0.00 | 0.00 | 0.00 | 100 | 902.3 |
| 20260905092126 | 11 | 252 | 22.5 | 45.1 | 0.00 | 0.00 | 0.00 | 100 | 904.2 |
| 20260905092001 | 11 | 251 | 22.5 | 45.1 | 0.00 | 0.00 | 0.00 | 100 | 906.0 |
| 20260905091919 | 11 | 250 | 24.1 | 45.1 | 0.00 | 0.00 | 0.00 | 100 | 906.0 |
| 20260905091908 | 11 | 250 | 24.1 | 45.1 | 0.00 | 0.00 | 0.00 | 100 | 900.9 |
| 20260905091802 | 11 | 250 | 24.1 | 45.1 | 0.00 | 0.00 | 0.00 | 100 | 900.9 |
| 20260905091709 | 11 | 252 | 22.5 | 37.0 | 0.00 | 0.00 | 0.00 | 100 | 901.6 |
| 20260905091554 | 11 | 252 | 24.1 | 40.2 | 0.00 | 0.00 | 0.00 | 100 | 901.8 |
| 20260905091500 | 11 | 253 | 24.1 | 40.2 | 0.00 | 0.00 | 0.00 | 100 | 906.5 |
| 20260905091345 | 11 | 254 | 24.1 | 40.2 | 0.00 | 0.00 | 0.00 | 100 | 902.9 |
| 20260905091250 | 11 | 255 | 22.5 | 40.2 | 0.00 | 0.00 | 0.00 | 100 | 905.9 |
| 20260905091136 | 11 | 256 | 22.5 | 33.8 | 0.00 | 0.00 | 0.00 | 100 | 901.6 |
| 20260905091043 | 11 | 255 | 22.5 | 32.2 | 0.00 | 0.00 | 0.00 | 100 | 901.7 |
| 20260905090928 | 11 | 255 | 22.5 | 37.0 | 0.00 | 0.00 | 0.00 | 100 | 903.0 |
| 20260905090823 | 10 | 255 | 22.5 | 37.0 | 0.00 | 0.00 | 0.00 | 100 | 906.3 |
| 20260905090718 | 10 | 255 | 22.5 | 37.0 | 0.00 | 0.00 | 0.00 | 100 | 900.5 |
| 20260905090624 | 10 | 256 | 22.5 | 37.0 | 0.00 | 0.00 | 0.00 | 100 | 900.5 |
| 20260905090509 | 10 | 256 | 22.5 | 37.0 | 0.00 | 0.00 | 0.00 | 100 | 903.5 |
| 20260905090416 | 10 | 256 | 22.5 | 37.0 | 0.00 | 0.00 | 0.00 | 100 | 903.5 |
| 20260905090301 | 10 | 256 | 22.5 | 35.4 | 0.00 | 0.00 | 0.00 | 100 | 905.1 |
| 20260905090217 | 10 | 255 | 22.5 | 37.0 | 0.00 | 0.00 | 0.00 | 100 | 900.2 |
| 20260905090009 | 10 | 256 | 24.1 | 38.6 | 0.00 | 0.00 | 0.00 | 100 | 903.9 |
| 20260905085854 | 10 | 256 | 25.7 | 40.2 | 0.00 | 0.00 | 0.00 | 100 | 907.1 |
| 20260905085750 | 10 | 255 | 25.7 | 40.2 | 0.00 | 0.00 | 0.00 | 100 | 905.7 |
| 20260905085645 | 10 | 253 | 27.4 | 40.2 | 0.00 | 0.00 | 0.00 | 100 | 900.5 |
| 20260905085550 | 10 | 250 | 27.4 | 41.8 | 0.00 | 0.00 | 0.00 | 100 | 904.6 |
| 20260905085436 | 10 | 249 | 27.4 | 41.8 | 0.00 | 0.00 | 0.00 | 100 | 901.9 |
| 20260905085343 | 10 | 249 | 27.4 | 37.0 | 0.00 | 0.00 | 0.00 | 100 | 901.9 |
| 20260905085228 | 10 | 250 | 27.4 | 37.0 | 0.00 | 0.00 | 0.00 | 100 | 902.8 |
| 20260905085134 | 10 | 249 | 25.7 | 37.0 | 0.00 | 0.00 | 0.00 | 100 | 902.2 |
| 20260905085019 | 10 | 249 | 25.7 | 38.6 | 0.00 | 0.00 | 0.00 | 100 | 899.8 |
| 20260905084925 | 10 | 249 | 25.7 | 40.2 | 0.00 | 0.00 | 0.00 | 100 | 900.6 |
| 20260905084811 | 10 | 250 | 24.1 | 40.2 | 0.00 | 0.00 | 0.00 | 100 | 903.5 |
| 20260905084706 | 10 | 250 | 24.1 | 40.2 | 0.00 | 0.00 | 0.00 | 100 | 906.2 |
| 20260905084601 | 10 | 250 | 22.5 | 37.0 | 0.00 | 0.00 | 0.00 | 100 | 900.3 |
| 20260905084518 | 10 | 250 | 22.5 | 37.0 | 0.00 | 0.00 | 0.00 | 100 | 900.1 |
| 20260905084403 | 10 | 250 | 20.9 | 33.8 | 0.00 | 0.00 | 0.00 | 100 | 901.0 |
| 20260905084309 | 10 | 250 | 19.3 | 32.2 | 0.00 | 0.00 | 0.00 | 100 | 910.1 |
| 20260905084154 | 10 | 249 | 19.3 | 33.8 | 0.00 | 0.00 | 0.00 | 100 | 904.9 |
| 20260905084100 | 10 | 250 | 19.3 | 27.4 | 0.00 | 0.00 | 0.00 | 100 | 904.9 |
| 20260905083946 | 10 | 249 | 19.3 | 27.4 | 0.00 | 0.00 | 0.00 | 100 | 900.7 |
| 20260905083853 | 10 | 248 | 19.3 | 27.4 | 0.00 | 0.00 | 0.00 | 100 | 902.6 |
| 20260905083737 | 10 | 248 | 20.9 | 32.2 | 0.00 | 0.00 | 0.00 | 100 | 907.0 |
| 20260905083633 | 10 | 250 | 20.9 | 32.2 | 0.00 | 0.00 | 0.00 | 100 | 901.8 |
| 20260905083527 | 10 | 251 | 20.9 | 32.2 | 0.00 | 0.00 | 0.00 | 100 | 900.6 |
| 20260905083434 | 10 | 252 | 20.9 | 32.2 | 0.00 | 0.00 | 0.00 | 100 | 902.0 |
| 20260905083319 | 10 | 252 | 20.9 | 32.2 | 0.00 | 0.00 | 0.00 | 100 | 905.6 |
| 20260905083226 | 10 | 250 | 20.9 | 32.2 | 0.00 | 0.00 | 0.00 | 100 | 901.1 |
| 20260905083111 | 10 | 250 | 19.3 | 32.2 | 0.00 | 0.00 | 0.00 | 100 | 903.3 |
| 20260905083017 | 10 | 249 | 20.9 | 32.2 | 0.00 | 0.00 | 0.00 | 100 | 901.5 |
| 20260905082902 | 10 | 250 | 19.3 | 30.6 | 0.00 | 0.00 | 0.00 | 100 | 904.3 |
| 20260905082819 | 10 | 249 | 19.3 | 30.6 | 0.00 | 0.00 | 0.00 | 100 | 904.3 |
| 20260905082704 | 10 | 249 | 19.3 | 30.6 | 0.00 | 0.00 | 0.00 | 100 | 901.5 |
| 20260905082630 | 10 | 250 | 19.3 | 29.0 | 0.00 | 0.00 | 0.00 | 100 | 904.3 |
| 20260905082553 | 10 | 250 | 19.3 | 29.0 | 0.00 | 0.00 | 0.00 | 100 | 904.3 |
| 20260905082441 | 10 | 252 | 19.3 | 29.0 | 0.00 | 0.00 | 0.00 | 100 | 903.1 |
| 20260905082228 | 10 | 253 | 20.9 | 32.2 | 0.00 | 0.00 | 0.00 | 100 | 900.6 |
| 20260905082004 | 10 | 251 | 20.9 | 32.2 | 0.00 | 0.00 | 0.00 | 100 | 908.7 |
| 20260905081740 | 10 | 251 | 20.9 | 29.0 | 0.00 | 0.00 | 0.00 | 100 | 900.9 |
| 20260905081516 | 10 | 252 | 22.5 | 32.2 | 0.00 | 0.00 | 0.00 | 100 | 907.4 |
| 20260905081405 | 10 | 250 | 24.1 | 38.6 | 0.00 | 0.00 | 0.00 | 100 | |
| 20260905081226 | 10 | 244 | 25.7 | 38.6 | 0.00 | 0.00 | 0.00 | 100 | 900.2 |
| 20260905081114 | 10 | 243 | 25.7 | 38.6 | 0.00 | 0.00 | 0.00 | 100 | 908.5 |
| 20260905081001 | 10 | 242 | 24.1 | 35.4 | 0.00 | 0.00 | 0.00 | 100 | 900.3 |
| 20260905080736 | 10 | 241 | 22.5 | 32.2 | 0.00 | 0.00 | 0.00 | 100 | 909.5 |
| 20260905080515 | 10 | 244 | 19.3 | 30.6 | 0.00 | 0.00 | 0.00 | 100 | 900.0 |
| 20260905080253 | 10 | 247 | 20.9 | 33.8 | 0.00 | 0.00 | 0.00 | 100 | 906.2 |
| 20260905080032 | 10 | 247 | 19.3 | 30.6 | 0.00 | 0.00 | 0.00 | 100 | 901.1 |
| 20260905075922 | 10 | 247 | 19.3 | 30.6 | 0.00 | 0.00 | 0.00 | 100 | |
| 20260905075744 | 10 | 240 | 20.9 | 35.4 | 0.00 | 0.00 | 0.00 | 100 | 905.0 |
| 20260905075632 | 10 | 241 | 20.9 | 35.4 | 0.00 | 0.00 | 0.00 | 100 | 900.4 |
| 20260905075520 | 10 | 240 | 22.5 | 35.4 | 0.00 | 0.00 | 0.00 | 100 | 902.4 |
| 20260905075259 | 10 | 250 | 20.9 | 32.2 | 0.00 | 0.00 | 0.00 | 100 | 903.2 |
| 20260905075036 | 10 | 250 | 22.5 | 32.2 | 0.00 | 0.00 | 0.00 | 100 | 905.3 |
| 20260905074813 | 10 | 245 | 22.5 | 32.2 | 0.00 | 0.00 | 0.00 | 100 | 902.1 |
| 20260905074552 | 10 | 240 | 25.7 | 38.6 | 0.00 | 0.00 | 0.00 | 100 | 901.3 |
| 20260905074440 | 10 | 240 | 25.7 | 38.6 | 0.00 | 0.00 | 0.00 | 100 | |
| 20260905074301 | 10 | 244 | 24.1 | 38.6 | 0.00 | 0.00 | 0.00 | 100 | 902.2 |
| 20260905074152 | 10 | 243 | 24.1 | 37.0 | 0.00 | 0.00 | 0.00 | 100 | 901.1 |
| 20260905074038 | 10 | 243 | 22.5 | 37.0 | 0.00 | 0.00 | 0.00 | 100 | 905.3 |
| 20260905073817 | 10 | 243 | 22.5 | 33.8 | 0.00 | 0.00 | 0.00 | 100 | 901.0 |
| 20260905073556 | 10 | 245 | 22.5 | 33.8 | 0.00 | 0.00 | 0.00 | 100 | 903.8 |
| 20260905073333 | 10 | 249 | 22.5 | 33.8 | 0.00 | 0.00 | 0.00 | 100 | 905.5 |
| 20260905073112 | 10 | 248 | 20.9 | 30.6 | 0.00 | 0.00 | 0.00 | 100 | 899.5 |
| 20260905073000 | 10 | 249 | 20.9 | 30.6 | 0.00 | 0.00 | 0.00 | 100 | |
| 20260905072822 | 10 | 248 | 20.9 | 33.8 | 0.00 | 0.00 | 0.00 | 100 | 902.3 |
| 20260905072711 | 10 | 248 | 20.9 | 33.8 | 0.00 | 0.00 | 0.00 | 100 | 902.3 |
| 20260905072557 | 10 | 249 | 20.9 | 33.8 | 0.00 | 0.00 | 0.00 | 100 | 900.3 |
| 20260905072337 | 10 | 252 | 19.3 | 29.0 | 0.00 | 0.00 | 0.00 | 100 | 905.3 |
| 20260905072116 | 10 | 250 | 19.3 | 30.6 | 0.00 | 0.00 | 0.00 | 100 | 901.8 |
| 20260905071854 | 10 | 252 | 19.3 | 30.6 | 0.00 | 0.00 | 0.00 | 100 | 905.3 |
| 20260905071631 | 10 | 255 | 19.3 | 35.4 | 0.00 | 0.00 | 0.00 | 100 | 905.7 |
| 20260905071521 | 10 | 254 | 19.3 | 35.4 | 0.00 | 0.00 | 0.00 | 100 | |
| 20260905071343 | 10 | 255 | 17.7 | 35.4 | 0.00 | 0.00 | 0.00 | 100 | 902.3 |
| 20260905071232 | 10 | 256 | 16.1 | 35.4 | 0.00 | 0.00 | 0.00 | 100 | 904.2 |
| 20260905071119 | 10 | 260 | 17.7 | 35.4 | 0.00 | 0.00 | 0.00 | 100 | 899.9 |
| 20260905070857 | 10 | 257 | 19.3 | 33.8 | 0.00 | 0.00 | 0.00 | 100 | 907.7 |
| 20260905070635 | 10 | 257 | 16.1 | 33.8 | 0.00 | 0.00 | 0.00 | 100 | 900.1 |
| 20260905070413 | 10 | 262 | 14.5 | 30.6 | 0.00 | 0.00 | 0.00 | 100 | 904.8 |
| 20260905070152 | 10 | 263 | 12.9 | 24.1 | 0.00 | 0.00 | 0.00 | 100 | 900.9 |
| 20260905070041 | 10 | 261 | 12.9 | 25.7 | 0.00 | 0.00 | 0.00 | 100 | |
| 20260905065815 | 10 | 258 | 16.1 | 27.4 | 0.00 | 0.00 | 0.00 | 100 | 905.4 |
| 20260905065548 | 10 | 254 | 14.5 | 25.7 | 0.00 | 0.00 | 0.00 | 100 | 905.2 |
| 20260905065323 | 10 | 255 | 17.7 | 27.4 | 0.00 | 0.00 | 0.00 | 100 | 900.5 |
| 20260905065100 | 10 | 257 | 19.3 | 30.6 | 0.00 | 0.00 | 0.00 | 100 | 900.6 |
| 20260905064948 | 10 | 255 | 17.7 | 30.6 | 0.00 | 0.00 | 0.00 | 100 | 900.6 |
| 20260905064835 | 10 | 254 | 17.7 | 32.2 | 0.00 | 0.00 | 0.00 | 100 | 904.2 |
| 20260905064613 | 10 | 251 | 20.9 | 32.2 | 0.00 | 0.00 | 0.00 | 100 | 901.3 |
| 20260905064404 | 10 | 250 | 22.5 | 32.2 | 0.00 | 0.00 | 0.00 | 100 | 903.3 |
| 20260905064155 | 10 | 250 | 20.9 | 32.2 | 0.00 | 0.00 | 0.00 | 100 | 905.3 |
| 20260905063947 | 10 | 249 | 19.3 | 29.0 | 0.00 | 0.00 | 0.00 | 100 | 898.9 |
| 20260905063844 | 10 | 251 | 19.3 | 32.2 | 0.00 | 0.00 | 0.00 | 100 | 906.6 |
| 20260905063749 | 10 | 252 | 19.3 | 32.2 | 0.00 | 0.00 | 0.00 | 100 | 906.6 |
| 20260905063738 | 10 | 252 | 19.3 | 32.2 | 0.00 | 0.00 | 0.00 | 100 | 905.1 |
| 20260905063540 | 10 | 254 | 19.3 | 29.0 | 0.00 | 0.00 | 0.00 | 100 | 899.9 |
| 20260905063331 | 10 | 253 | 19.3 | 27.4 | 0.00 | 0.00 | 0.00 | 100 | 900.1 |
| 20260905063122 | 10 | 253 | 17.7 | 29.0 | 0.00 | 0.00 | 0.00 | 100 | 901.0 |
| 20260905063006 | 10 | 253 | 17.7 | 30.6 | 0.00 | 0.00 | 0.00 | 100 | 903.0 |
| 20260905062944 | 10 | 252 | 17.7 | 30.6 | 0.00 | 0.00 | 0.00 | 100 | 903.0 |
| 20260905062908 | 10 | 252 | 19.3 | 30.6 | 0.00 | 0.00 | 0.00 | 100 | 899.8 |
| 20260905062758 | 10 | 250 | 19.3 | 30.6 | 0.00 | 0.00 | 0.00 | 100 | 903.3 |
| 20260905062643 | 10 | 250 | 19.3 | 29.0 | 0.00 | 0.00 | 0.00 | 100 | 902.0 |
| 20260905062442 | 10 | 245 | 20.9 | 33.8 | 0.00 | 0.00 | 0.00 | 100 | 899.7 |
| 20260905062232 | 10 | 245 | 22.5 | 35.4 | 0.00 | 0.00 | 0.00 | 100 | 904.6 |
| 20260905062011 | 10 | 248 | 24.1 | 37.0 | 0.00 | 0.00 | 0.00 | 100 | 906.9 |
| 20260905061803 | 10 | 249 | 22.5 | 33.8 | 0.00 | 0.00 | 0.00 | 100 | 904.1 |
| 20260905061659 | 10 | 250 | 22.5 | 33.8 | 0.00 | 0.00 | 0.00 | 100 | 903.9 |
| 20260905061553 | 10 | 252 | 22.5 | 38.6 | 0.00 | 0.00 | 0.00 | 100 | 900.4 |
| 20260905061406 | 10 | 253 | 20.9 | 38.6 | 0.00 | 0.00 | 0.00 | 100 | 900.3 |
| 20260905061355 | 10 | 253 | 20.9 | 38.6 | 0.00 | 0.00 | 0.00 | 100 | 905.4 |
| 20260905061147 | 10 | 257 | 17.7 | 32.2 | 0.00 | 0.00 | 0.00 | 100 | 903.6 |
| 20260905060937 | 10 | 263 | 16.1 | 29.0 | 0.00 | 0.00 | 0.00 | 100 | 907.4 |
| 20260905060729 | 10 | 255 | 16.1 | 29.0 | 0.00 | 0.00 | 0.00 | 100 | 898.8 |
| 20260905060626 | 10 | 255 | 17.7 | 29.0 | 0.00 | 0.00 | 0.00 | 100 | 908.3 |
| 20260905060520 | 10 | 256 | 17.7 | 35.4 | 0.00 | 0.00 | 0.00 | 100 | 902.4 |
| 20260905060311 | 10 | 258 | 17.7 | 35.4 | 0.00 | 0.00 | 0.00 | 100 | 906.8 |
| 20260905055904 | 11 | 257 | 19.3 | 40.2 | 0.00 | 0.00 | 0.00 | 100 | 901.5 |
| 20260905055854 | 11 | 257 | 19.3 | 40.2 | 0.00 | 0.00 | 0.00 | 100 | 903.2 |
| 20260905055656 | 11 | 260 | 19.3 | 40.2 | 0.00 | 0.00 | 0.00 | 100 | 900.4 |
| 20260905055553 | 11 | 257 | 19.3 | 35.4 | 0.00 | 0.00 | 0.00 | 100 | 906.0 |
| 20260905055442 | 11 | 258 | 19.3 | 35.4 | 0.00 | 0.00 | 0.00 | 100 | 904.5 |
| 20260905055234 | 11 | 272 | 17.7 | 32.2 | 0.00 | 0.00 | 0.00 | 100 | 901.5 |
| 20260905055025 | 11 | 277 | 14.5 | 29.0 | 0.00 | 0.00 | 0.00 | 100 | 899.2 |
| 20260905054816 | 11 | 266 | 16.1 | 30.6 | 0.00 | 0.00 | 0.00 | 100 | 903.0 |
| 20260905054619 | 11 | 270 | 16.1 | 30.6 | 0.00 | 0.00 | 0.00 | 100 | 902.0 |
| 20260905054608 | 11 | 270 | 16.1 | 30.6 | 0.00 | 0.00 | 0.00 | 100 | 901.7 |
| 20260905054505 | 11 | 269 | 16.1 | 30.6 | 0.00 | 0.00 | 0.00 | 100 | 901.7 |
| 20260905054358 | 11 | 261 | 16.1 | 30.6 | 0.00 | 0.00 | 0.00 | 100 | 899.7 |
| 20260905054201 | 11 | 257 | 14.5 | 30.6 | 0.00 | 0.00 | 0.00 | 100 | 904.1 |
| 20260905053952 | 11 | 256 | 14.5 | 30.6 | 0.00 | 0.00 | 0.00 | 100 | 899.4 |
| 20260905053743 | 11 | 256 | 14.5 | 24.1 | 0.00 | 0.00 | 0.00 | 100 | 904.7 |
| 20260905053545 | 11 | 259 | 12.9 | 24.1 | 0.00 | 0.00 | 0.00 | 100 | 898.8 |
| 20260905053535 | 11 | 259 | 12.9 | 24.1 | 0.00 | 0.00 | 0.00 | 100 | 901.8 |
| 20260905053431 | 11 | 260 | 12.9 | 24.1 | 0.00 | 0.00 | 0.00 | 100 | 906.1 |
| 20260905053325 | 11 | 255 | 16.1 | 30.6 | 0.00 | 0.00 | 0.00 | 100 | 906.1 |
| 20260905053117 | 11 | 254 | 19.3 | 30.6 | 0.00 | 0.00 | 0.00 | 100 | 899.3 |
| 20260905052908 | 11 | 255 | 17.7 | 27.4 | 0.00 | 0.00 | 0.00 | 100 | 904.3 |
| 20260905052659 | 11 | 261 | 14.5 | 25.7 | 0.00 | 0.00 | 0.00 | 100 | 899.4 |
| 20260905052502 | 11 | 260 | 12.9 | 29.0 | 0.00 | 0.00 | 0.00 | 100 | 905.4 |
| 20260905052358 | 11 | 261 | 14.5 | 29.0 | 0.00 | 0.00 | 0.00 | 100 | 898.9 |
| 20260905052306 | 11 | 265 | 14.5 | 29.0 | 0.00 | 0.00 | 0.00 | 100 | 898.9 |
| 20260905052251 | 11 | 265 | 14.5 | 29.0 | 0.00 | 0.00 | 0.00 | 100 | 899.6 |
| 20260905052043 | 11 | 277 | 12.9 | 29.0 | 0.00 | 0.00 | 0.00 | 100 | 901.7 |
| 20260905051834 | 11 | 281 | 12.9 | 30.6 | 0.00 | 0.00 | 0.00 | 100 | 899.3 |
| 20260905051625 | 11 | 286 | 17.7 | 35.4 | 0.00 | 0.00 | 0.00 | 100 | 902.6 |
| 20260905051417 | 11 | 290 | 17.7 | 35.4 | 0.00 | 0.00 | 0.00 | 100 | 902.6 |
| 20260905051314 | 11 | 289 | 16.1 | 35.4 | 0.00 | 0.00 | 0.00 | 100 | 899.2 |
| 20260905051207 | 11 | 290 | 16.1 | 32.2 | 0.00 | 0.00 | 0.00 | 100 | 900.4 |
| 20260905050959 | 11 | 292 | 16.1 | 29.0 | 0.00 | 0.00 | 0.00 | 100 | 905.8 |
| 20260905050801 | 11 | 293 | 16.1 | 33.8 | 0.00 | 0.00 | 0.00 | 100 | 905.9 |
| 20260905050552 | 11 | 297 | 16.1 | 33.8 | 0.00 | 0.00 | 0.00 | 100 | 899.2 |
| 20260905050343 | 12 | 295 | 14.5 | 25.7 | 0.00 | 0.00 | 0.00 | 100 | 909.5 |
| 20260905050240 | 12 | 294 | 16.1 | 27.4 | 0.00 | 0.00 | 0.00 | 100 | 902.1 |
| 20260905050134 | 12 | 295 | 16.1 | 27.4 | 0.00 | 0.00 | 0.00 | 100 | 899.5 |
| 20260905045926 | 12 | 308 | 12.9 | 29.0 | 0.00 | 0.00 | 0.00 | 100 | 900.5 |
| 20260905045728 | 12 | 301 | 11.3 | 29.0 | 0.00 | 0.00 | 0.00 | 100 | 902.6 |
| 20260905045717 | 12 | 301 | 11.3 | 29.0 | 0.00 | 0.00 | 0.00 | 100 | 903.8 |
| 20260905045508 | 12 | 294 | 16.1 | 33.8 | 0.00 | 0.00 | 0.00 | 100 | 901.0 |
| 20260905045300 | 12 | 291 | 20.9 | 40.2 | 0.00 | 0.00 | 0.00 | 100 | 899.5 |
| 20260905045156 | 12 | 291 | 19.3 | 40.2 | 0.00 | 0.00 | 0.00 | 100 | 903.8 |
| 20260905045101 | 12 | 292 | 17.7 | 40.2 | 0.00 | 0.00 | 0.00 | 100 | 904.3 |
| 20260905044852 | 12 | 296 | 14.5 | 32.2 | 0.00 | 0.00 | 0.00 | 100 | 899.6 |
| 20260905044644 | 12 | 297 | 16.1 | 32.2 | 0.00 | 0.00 | 0.00 | 100 | 903.6 |
| 20260905044447 | 12 | 294 | 17.7 | 30.6 | 0.00 | 0.00 | 0.00 | 100 | 904.3 |
| 20260905044435 | 12 | 294 | 17.7 | 30.6 | 0.00 | 0.00 | 0.00 | 100 | 899.6 |
| 20260905044226 | 12 | 289 | 14.5 | 32.2 | 0.00 | 0.00 | 0.00 | 100 | 899.5 |
| 20260905044123 | 12 | 289 | 14.5 | 32.2 | 0.00 | 0.00 | 0.00 | 100 | 899.3 |
| 20260905044017 | 12 | 290 | 12.9 | 25.7 | 0.00 | 0.00 | 0.00 | 100 | 900.8 |
| 20260905043808 | 12 | 295 | 14.5 | 25.7 | 0.00 | 0.00 | 0.00 | 100 | 906.8 |
| 20260905043600 | 12 | 294 | 16.1 | 27.4 | 0.00 | 0.00 | 0.00 | 100 | 899.1 |
| 20260905043402 | 12 | 292 | 16.1 | 29.0 | 0.00 | 0.00 | 0.00 | 100 | 900.2 |
| 20260905043205 | 12 | 294 | 14.5 | 29.0 | 0.00 | 0.00 | 0.00 | 100 | 902.4 |
| 20260905043153 | 12 | 294 | 14.5 | 29.0 | 0.00 | 0.00 | 0.00 | 100 | 904.2 |
| 20260905043050 | 12 | 293 | 16.1 | 29.0 | 0.00 | 0.00 | 0.00 | 100 | 904.2 |
| 20260905042943 | 12 | 292 | 16.1 | 32.2 | 0.00 | 0.00 | 0.00 | 100 | 899.8 |
| 20260905042735 | 11 | 287 | 16.1 | 32.2 | 0.00 | 0.00 | 0.00 | 100 | 901.6 |
| 20260905042526 | 11 | 280 | 11.3 | 27.4 | 0.00 | 0.00 | 0.00 | 100 | 901.1 |
| 20260905042317 | 12 | 281 | 9.7 | 27.4 | 0.00 | 0.00 | 0.00 | 100 | 900.3 |
| 20260905042109 | 12 | 279 | 9.7 | 24.1 | 0.00 | 0.00 | 0.00 | 100 | 901.4 |
| 20260905042006 | 12 | 278 | 11.3 | 29.0 | 0.00 | 0.00 | 0.00 | 100 | 899.6 |
| 20260905041911 | 12 | 290 | 16.1 | 33.8 | 0.00 | 0.00 | 0.00 | 100 | 899.6 |
| 20260905041859 | 12 | 290 | 16.1 | 33.8 | 0.00 | 0.00 | 0.00 | 100 | 899.5 |
| 20260905041702 | 12 | 289 | 16.1 | 33.8 | 0.00 | 0.00 | 0.00 | 100 | 900.0 |
| 20260905041453 | 12 | 287 | 11.3 | 25.7 | 0.00 | 0.00 | 0.00 | 100 | 901.4 |
| 20260905041244 | 11 | 293 | 9.7 | 22.5 | 0.00 | 0.00 | 0.00 | 100 | 899.2 |
| 20260905041036 | 12 | 295 | 8.0 | 19.3 | 0.00 | 0.00 | 0.00 | 100 | 899.3 |
| 20260905040932 | 12 | 281 | 11.3 | 25.7 | 0.00 | 0.00 | 0.00 | 100 | 900.0 |
| 20260905040826 | 12 | 255 | 12.9 | 25.7 | 0.00 | 0.00 | 0.00 | 100 | 906.2 |
| 20260905040629 | 11 | 250 | 16.1 | 27.4 | 0.00 | 0.00 | 0.00 | 100 | 902.7 |
| 20260905040618 | 11 | 250 | 16.1 | 27.4 | 0.00 | 0.00 | 0.00 | 100 | 898.4 |
| 20260905040409 | 12 | 264 | 12.9 | 27.4 | 0.00 | 0.00 | 0.00 | 100 | 902.1 |
| 20260905040200 | 12 | 281 | 11.3 | 24.1 | 0.00 | 0.00 | 0.00 | 100 | 903.5 |
| 20260905040003 | 12 | 283 | 9.7 | 19.3 | 0.00 | 0.00 | 0.00 | 100 | 906.2 |
| 20260905035859 | 12 | 270 | 11.3 | 19.3 | 0.00 | 0.00 | 0.00 | 100 | 900.9 |
| 20260905035753 | 12 | 260 | 9.7 | 17.7 | 0.00 | 0.00 | 0.00 | 100 | 903.8 |
| 20260905035545 | 12 | 251 | 11.3 | 17.7 | 0.00 | 0.00 | 0.00 | 100 | 901.1 |
| 20260905035348 | 12 | 254 | 11.3 | 19.3 | 0.00 | 0.00 | 0.00 | 100 | 902.6 |
| 20260905035336 | 12 | 254 | 11.3 | 19.3 | 0.00 | 0.00 | 0.00 | 100 | 899.9 |
| 20260905035127 | 12 | 264 | 9.7 | 19.3 | 0.00 | 0.00 | 0.00 | 100 | 899.7 |
| 20260905034919 | 12 | 270 | 9.7 | 17.7 | 0.00 | 0.00 | 0.00 | 100 | 900.1 |
| 20260905034815 | 12 | 276 | 11.3 | 29.0 | 0.00 | 0.00 | 0.00 | 100 | 902.5 |
| 20260905034709 | 12 | 283 | 11.3 | 29.0 | 0.00 | 0.00 | 0.00 | 100 | 905.2 |
| 20260905034501 | 12 | 278 | 9.7 | 29.0 | 0.00 | 0.00 | 0.00 | 100 | 900.1 |
| 20260905034314 | 12 | 274 | 9.7 | 22.5 | 0.00 | 0.00 | 0.00 | 100 | 900.5 |
| 20260905034303 | 12 | 274 | 9.7 | 22.5 | 0.00 | 0.00 | 0.00 | 100 | 901.0 |
| 20260905034054 | 12 | 284 | 12.9 | 24.1 | 0.00 | 0.00 | 0.00 | 100 | 905.6 |
| 20260905033846 | 12 | 285 | 9.7 | 24.1 | 0.00 | 0.00 | 0.00 | 100 | 899.6 |
| 20260905033742 | 12 | 284 | 9.7 | 19.3 | 0.00 | 0.00 | 0.00 | 100 | 900.2 |
| 20260905033635 | 12 | 291 | 6.4 | 19.3 | 0.00 | 0.00 | 0.00 | 100 | 903.5 |
| 20260905033427 | 12 | 295 | 6.4 | 14.5 | 0.00 | 0.00 | 0.00 | 100 | 900.3 |
| 20260905033222 | 12 | 291 | 6.4 | 14.5 | 0.00 | 0.00 | 0.00 | 100 | 900.7 |
| 20260905033009 | 12 | 294 | 6.4 | 14.5 | 0.00 | 0.00 | 0.00 | 100 | 900.0 |
| 20260905032801 | 12 | 292 | 8.0 | 19.3 | 0.00 | 0.00 | 0.00 | 100 | 900.1 |
| 20260905032657 | 12 | 295 | 9.7 | 22.5 | 0.00 | 0.00 | 0.00 | 100 | 900.1 |
| 20260905032601 | 12 | 293 | 9.7 | 22.5 | 0.00 | 0.00 | 0.00 | 100 | 900.4 |
| 20260905032353 | 12 | 293 | 8.0 | 22.5 | 0.00 | 0.00 | 0.00 | 100 | 903.8 |
| 20260905032145 | 12 | 290 | 8.0 | 19.3 | 0.00 | 0.00 | 0.00 | 100 | 900.4 |
| 20260905031936 | 12 | 297 | 9.7 | 22.5 | 0.00 | 0.00 | 0.00 | 100 | 899.7 |
| 20260905031728 | 12 | 281 | 8.0 | 22.5 | 0.00 | 0.00 | 0.00 | 100 | 899.6 |
| 20260905031624 | 12 | 277 | 8.0 | 16.1 | 0.00 | 0.00 | 0.00 | 100 | 899.9 |
| 20260905031529 | 12 | 280 | 9.7 | 19.3 | 0.00 | 0.00 | 0.00 | 100 | 899.9 |
| 20260905031518 | 12 | 280 | 9.7 | 19.3 | 0.00 | 0.00 | 0.00 | 100 | 902.1 |
| 20260905031309 | 12 | 301 | 11.3 | 22.5 | 0.00 | 0.00 | 0.00 | 100 | 904.7 |
| 20260905031101 | 12 | 295 | 12.9 | 27.4 | 0.00 | 0.00 | 0.00 | 100 | 899.9 |
| 20260905030857 | 12 | 291 | 11.3 | 27.4 | 0.00 | 0.00 | 0.00 | 100 | 903.4 |
| 20260905030649 | 12 | 298 | 11.3 | 32.2 | 0.00 | 0.00 | 0.00 | 100 | 899.8 |
| 20260905030545 | 12 | 297 | 12.9 | 32.2 | 0.00 | 0.00 | 0.00 | 100 | 900.2 |
| 20260905030439 | 12 | 296 | 12.9 | 32.2 | 0.00 | 0.00 | 0.00 | 100 | 901.3 |
| 20260905030242 | 12 | 295 | 14.5 | 30.6 | 0.00 | 0.00 | 0.00 | 100 | 901.5 |
| 20260905030230 | 12 | 295 | 14.5 | 30.6 | 0.00 | 0.00 | 0.00 | 100 | 900.0 |
| 20260905030022 | 12 | 296 | 14.5 | 24.1 | 0.00 | 0.00 | 0.00 | 100 | 900.4 |
| 20260905025813 | 12 | 296 | 12.9 | 30.6 | 0.00 | 0.00 | 0.00 | 100 | 899.6 |
| 20260905025615 | 12 | 300 | 12.9 | 30.6 | 0.00 | 0.00 | 0.00 | 100 | 899.7 |
| 20260905025405 | 12 | 301 | 12.9 | 29.0 | 0.00 | 0.00 | 0.00 | 100 | 904.4 |
| 20260905025208 | 12 | 298 | 12.9 | 27.4 | 0.00 | 0.00 | 0.00 | 100 | 900.0 |
| 20260905025157 | 12 | 298 | 12.9 | 27.4 | 0.00 | 0.00 | 0.00 | 100 | 900.9 |
| 20260905024949 | 12 | 298 | 11.3 | 24.1 | 0.00 | 0.00 | 0.00 | 100 | 902.4 |
| 20260905024740 | 12 | 303 | 9.7 | 24.1 | 0.00 | 0.00 | 0.00 | 100 | 899.9 |
| 20260905024532 | 12 | 306 | 8.0 | 19.3 | 0.00 | 0.00 | 0.00 | 100 | 900.0 |
| 20260905024428 | 12 | 300 | 8.0 | 19.3 | 0.00 | 0.00 | 0.00 | 100 | 900.4 |
| 20260905024322 | 12 | 304 | 6.4 | 16.1 | 0.00 | 0.00 | 0.00 | 100 | 903.1 |
| 20260905024113 | 12 | 298 | 6.4 | 24.1 | 0.00 | 0.00 | 0.00 | 100 | 900.2 |
| 20260905023915 | 12 | 295 | 9.7 | 32.2 | 0.00 | 0.00 | 0.00 | 100 | 900.0 |
| 20260905023706 | 12 | 305 | 9.7 | 20.9 | 0.00 | 0.00 | 0.00 | 100 | 900.5 |
| 20260905023458 | 12 | 329 | 11.3 | 33.8 | 0.00 | 0.00 | 0.00 | 100 | 903.6 |
| 20260905023355 | 12 | 328 | 12.9 | 33.8 | 0.00 | 0.00 | 0.00 | 100 | 899.9 |
| 20260905023248 | 12 | 320 | 12.9 | 33.8 | 0.00 | 0.00 | 0.00 | 100 | 899.8 |
| 20260905023040 | 12 | 301 | 14.5 | 33.8 | 0.00 | 0.00 | 0.00 | 100 | 902.0 |
| 20260905022831 | 12 | 300 | 12.9 | 33.8 | 0.00 | 0.00 | 0.00 | 100 | 900.4 |
| 20260905022634 | 12 | 316 | 11.3 | 32.2 | 0.00 | 0.00 | 0.00 | 100 | 901.7 |
| 20260905022622 | 12 | 316 | 11.3 | 32.2 | 0.00 | 0.00 | 0.00 | 100 | 903.7 |
| 20260905022414 | 12 | 304 | 11.3 | 32.2 | 0.00 | 0.00 | 0.00 | 100 | 900.1 |
| 20260905022311 | 12 | 297 | 11.3 | 32.2 | 0.00 | 0.00 | 0.00 | 100 | 900.0 |
| 20260905022215 | 12 | 294 | 11.3 | 22.5 | 0.00 | 0.00 | 0.00 | 100 | 900.0 |
| 20260905022006 | 12 | 300 | 11.3 | 20.9 | 0.00 | 0.00 | 0.00 | 100 | 903.2 |
| 20260905021758 | 12 | 299 | 12.9 | 27.4 | 0.00 | 0.00 | 0.00 | 100 | 900.5 |
| 20260905021549 | 12 | 310 | 11.3 | 27.4 | 0.00 | 0.00 | 0.00 | 100 | 903.8 |
| 20260905021351 | 12 | 342 | 8.0 | 20.9 | 0.00 | 0.00 | 0.00 | 100 | 904.2 |
| 20260905021341 | 12 | 342 | 8.0 | 20.9 | 0.00 | 0.00 | 0.00 | 100 | 900.8 |
| 20260905021237 | 12 | 345 | 6.4 | 19.3 | 0.00 | 0.00 | 0.00 | 100 | 901.3 |
| 20260905021131 | 12 | 347 | 6.4 | 19.3 | 0.00 | 0.00 | 0.00 | 100 | 901.3 |
| 20260905020922 | 12 | 349 | 6.4 | 20.9 | 0.00 | 0.00 | 0.00 | 100 | 904.0 |
| 20260905020714 | 12 | 350 | 8.0 | 22.5 | 0.00 | 0.00 | 0.00 | 100 | 900.9 |
| 20260905020516 | 12 | 349 | 8.0 | 16.1 | 0.00 | 0.00 | 0.00 | 100 | 902.1 |
| 20260905020307 | 12 | 346 | 11.3 | 30.6 | 0.00 | 0.00 | 0.00 | 100 | 900.0 |
| 20260905020204 | 12 | 345 | 11.3 | 30.6 | 0.00 | 0.00 | 0.00 | 100 | 900.0 |
| 20260905020109 | 12 | 342 | 11.3 | 30.6 | 0.00 | 0.00 | 0.00 | 100 | 900.0 |
| 20260905020058 | 12 | 342 | 11.3 | 30.6 | 0.00 | 0.00 | 0.00 | 100 | 901.6 |
| 20260905015849 | 12 | 340 | 14.5 | 33.8 | 0.00 | 0.00 | 0.00 | 100 | 904.0 |
| 20260905015641 | 12 | 350 | 16.1 | 33.8 | 0.00 | 0.00 | 0.00 | 100 | 899.8 |
| 20260905015432 | 12 | 352 | 14.5 | 33.8 | 0.00 | 0.00 | 0.00 | 100 | 903.1 |
| 20260905015224 | 12 | 347 | 16.1 | 35.4 | 0.00 | 0.00 | 0.00 | 100 | 900.1 |
| 20260905015120 | 12 | 344 | 14.5 | 30.6 | 0.00 | 0.00 | 0.00 | 100 | 901.3 |
| 20260905015014 | 12 | 344 | 11.3 | 32.2 | 0.00 | 0.00 | 0.00 | 100 | 903.6 |
| 20260905014816 | 12 | 344 | 14.5 | 33.8 | 0.00 | 0.00 | 0.00 | 100 | 900.2 |
| 20260905014607 | 12 | 342 | 14.5 | 32.2 | 0.00 | 0.00 | 0.00 | 100 | 900.9 |
| 20260905014359 | 12 | 333 | 6.4 | 32.2 | 0.00 | 0.00 | 0.00 | 100 | 900.4 |
| 20260905014150 | 12 | 321 | 8.0 | 32.2 | 0.00 | 0.00 | 0.00 | 100 | 900.5 |
| 20260905014046 | 12 | 323 | 8.0 | 32.2 | 0.00 | 0.00 | 0.00 | 100 | 900.6 |
| 20260905013940 | 12 | 313 | 8.0 | 32.2 | 0.00 | 0.00 | 0.00 | 100 | 902.6 |
| 20260905013732 | 12 | 337 | 9.7 | 25.7 | 0.00 | 0.00 | 0.00 | 100 | 900.3 |
| 20260905013535 | 12 | 346 | 11.3 | 25.7 | 0.00 | 0.00 | 0.00 | 100 | 899.9 |
| 20260905013523 | 12 | 346 | 11.3 | 25.7 | 0.00 | 0.00 | 0.00 | 100 | 899.7 |
| 20260905013314 | 12 | 341 | 12.9 | 30.6 | 0.00 | 0.00 | 0.00 | 100 | 899.4 |
| 20260905013117 | 12 | 334 | 12.9 | 30.6 | 0.00 | 0.00 | 0.00 | 100 | 900.1 |
| 20260905013013 | 12 | 333 | 12.9 | 30.6 | 0.00 | 0.00 | 0.00 | 100 | 901.8 |
| 20260905012907 | 12 | 330 | 9.7 | 25.7 | 0.00 | 0.00 | 0.00 | 100 | 905.9 |
| 20260905012658 | 12 | 327 | 6.4 | 19.3 | 0.00 | 0.00 | 0.00 | 100 | 900.5 |
| 20260905012450 | 12 | 331 | 6.4 | 14.5 | 0.00 | 0.00 | 0.00 | 100 | 900.1 |
| 20260905012253 | 12 | 335 | 6.4 | 17.7 | 0.00 | 0.00 | 0.00 | 100 | 900.1 |
| 20260905012241 | 12 | 335 | 6.4 | 17.7 | 0.00 | 0.00 | 0.00 | 100 | 899.9 |
| 20260905012033 | 12 | 347 | 6.4 | 17.7 | 0.00 | 0.00 | 0.00 | 100 | 900.0 |
| 20260905011930 | 12 | 357 | 6.4 | 17.7 | 0.00 | 0.00 | 0.00 | 100 | 901.5 |
| 20260905011823 | 12 | 350 | 6.4 | 17.7 | 0.00 | 0.00 | 0.00 | 100 | 903.8 |
| 20260905011615 | 12 | 339 | 6.4 | 14.5 | 0.00 | 0.00 | 0.00 | 100 | 900.5 |
| 20260905011417 | 12 | 347 | 6.4 | 17.7 | 0.00 | 0.00 | 0.00 | 100 | 901.8 |
| 20260905011218 | 12 | 356 | 11.3 | 24.1 | 0.00 | 0.00 | 0.00 | 100 | 899.8 |
| 20260905011208 | 12 | 356 | 11.3 | 24.1 | 0.00 | 0.00 | 0.00 | 100 | 899.7 |
| 20260905011000 | 12 | 357 | 14.5 | 35.4 | 0.00 | 0.00 | 0.00 | 100 | 899.8 |
| 20260905010856 | 12 | 354 | 14.5 | 35.4 | 0.00 | 0.00 | 0.00 | 100 | 900.0 |
| 20260905010750 | 12 | 353 | 12.9 | 35.4 | 0.00 | 0.00 | 0.00 | 100 | 903.6 |
| 20260905010542 | 12 | 353 | 9.7 | 19.3 | 0.00 | 0.00 | 0.00 | 100 | 900.1 |
| 20260905010333 | 12 | 352 | 9.7 | 27.4 | 0.00 | 0.00 | 0.00 | 100 | 902.1 |
| 20260905010124 | 12 | 334 | 8.0 | 27.4 | 0.00 | 0.00 | 0.00 | 100 | 900.2 |
| 20260905005916 | 12 | 325 | 6.4 | 17.7 | 0.00 | 0.00 | 0.00 | 100 | 900.4 |
| 20260905005812 | 12 | 341 | 6.4 | 22.5 | 0.00 | 0.00 | 0.00 | 100 | 900.3 |
| 20260905005717 | 12 | 356 | 8.0 | 22.5 | 0.00 | 0.00 | 0.00 | 100 | 900.3 |
| 20260905005508 | 12 | 16 | 9.7 | 22.5 | 0.00 | 0.00 | 0.00 | 100 | 902.3 |
| 20260905005259 | 12 | 0 | 9.7 | 22.5 | 0.00 | 0.00 | 0.00 | 100 | 900.1 |
| 20260905005051 | 12 | 359 | 11.3 | 30.6 | 0.00 | 0.00 | 0.00 | 100 | 900.8 |
| 20260905004842 | 13 | 10 | 9.7 | 30.6 | 0.00 | 0.00 | 0.00 | 100 | 899.8 |
| 20260905004739 | 13 | 11 | 9.7 | 25.7 | 0.00 | 0.00 | 0.00 | 100 | 900.1 |
| 20260905004632 | 13 | 7 | 11.3 | 24.1 | 0.00 | 0.00 | 0.00 | 100 | 900.5 |
| 20260905004435 | 13 | 6 | 11.3 | 24.1 | 0.00 | 0.00 | 0.00 | 100 | 904.0 |
| 20260905004424 | 13 | 6 | 11.3 | 24.1 | 0.00 | 0.00 | 0.00 | 100 | 900.1 |
| 20260905004215 | 13 | 351 | 8.0 | 22.5 | 0.00 | 0.00 | 0.00 | 100 | 900.0 |
| 20260905004016 | 13 | 336 | 6.4 | 16.1 | 0.00 | 0.00 | 0.00 | 100 | 899.8 |
| 20260905003808 | 13 | 347 | 8.0 | 16.1 | 0.00 | 0.00 | 0.00 | 100 | 899.5 |
| 20260905003705 | 13 | 349 | 9.7 | 19.3 | 0.00 | 0.00 | 0.00 | 100 | 899.2 |
| 20260905003559 | 13 | 355 | 9.7 | 20.9 | 0.00 | 0.00 | 0.00 | 100 | 899.1 |
| 20260905003401 | 13 | 346 | 9.7 | 29.0 | 0.00 | 0.00 | 0.00 | 100 | 899.4 |
| 20260905003350 | 13 | 346 | 9.7 | 29.0 | 0.00 | 0.00 | 0.00 | 100 | 902.7 |
| 20260905003142 | 13 | 344 | 11.3 | 29.0 | 0.00 | 0.00 | 0.00 | 100 | 906.6 |
| 20260905002933 | 13 | 332 | 9.7 | 25.7 | 0.00 | 0.00 | 0.00 | 100 | 899.8 |
| 20260905002724 | 13 | 325 | 12.9 | 27.4 | 0.00 | 0.00 | 0.00 | 100 | 899.4 |
| 20260905002621 | 13 | 328 | 12.9 | 27.4 | 0.00 | 0.00 | 0.00 | 100 | 899.2 |
| 20260905002521 | 13 | 331 | 11.3 | 27.4 | 0.00 | 0.00 | 0.00 | 100 | 899.2 |
| 20260905002313 | 13 | 338 | 8.0 | 22.5 | 0.00 | 0.00 | 0.00 | 100 | 903.2 |
| 20260905002115 | 13 | 340 | 6.4 | 22.5 | 0.00 | 0.00 | 0.00 | 100 | 901.9 |
| 20260905002104 | 13 | 340 | 6.4 | 22.5 | 0.00 | 0.00 | 0.00 | 100 | 899.7 |
| 20260905001855 | 13 | 340 | 11.3 | 27.4 | 0.00 | 0.00 | 0.00 | 100 | 899.9 |
| 20260905001647 | 13 | 340 | 14.5 | 29.0 | 0.00 | 0.00 | 0.00 | 100 | 902.7 |
| 20260905001544 | 13 | 339 | 14.5 | 29.0 | 0.00 | 0.00 | 0.00 | 100 | 904.5 |
| 20260905001437 | 13 | 337 | 12.9 | 29.0 | 0.00 | 0.00 | 0.00 | 100 | 899.6 |
| 20260905001229 | 13 | 337 | 9.7 | 27.4 | 0.00 | 0.00 | 0.00 | 100 | 899.4 |
| 20260905001020 | 13 | 333 | 8.0 | 22.5 | 0.00 | 0.00 | 0.00 | 100 | 899.5 |
| 20260905000833 | 13 | 334 | 8.0 | 27.4 | 0.00 | 0.00 | 0.00 | 100 | 899.5 |
| 20260905000822 | 13 | 334 | 8.0 | 27.4 | 0.00 | 0.00 | 0.00 | 100 | 899.7 |
| 20260905000614 | 13 | 334 | 9.7 | 27.4 | 0.00 | 0.00 | 0.00 | 100 | 901.9 |
| 20260905000510 | 13 | 334 | 8.0 | 27.4 | 0.00 | 0.00 | 0.00 | 100 | 904.8 |
| 20260905000404 | 13 | 328 | 9.7 | 32.2 | 0.00 | 0.00 | 0.00 | 100 | 900.0 |
| 20260905000156 | 14 | 330 | 9.7 | 32.2 | 0.00 | 0.00 | 0.00 | 100 | 899.9 |
| 20260904235947 | 14 | 333 | 9.7 | 25.7 | 0.00 | 0.00 | 0.00 | 100 | 899.8 |
| 20260904235738 | 14 | 330 | 9.7 | 22.5 | 0.00 | 0.00 | 0.00 | 100 | 899.6 |
| 20260904235541 | 14 | 330 | 6.4 | 22.5 | 0.00 | 0.00 | 0.00 | 100 | 899.7 |
| 20260904235530 | 14 | 330 | 6.4 | 22.5 | 0.00 | 0.00 | 0.00 | 100 | 899.5 |
| 20260904235427 | 14 | 327 | 8.0 | 20.9 | 0.00 | 0.00 | 0.00 | 100 | 899.5 |
| 20260904235320 | 14 | 314 | 6.4 | 17.7 | 0.00 | 0.00 | 0.00 | 100 | 899.5 |
| 20260904235122 | 14 | 302 | 8.0 | 22.5 | 0.00 | 0.00 | 0.00 | 100 | 900.4 |
| 20260904234914 | 14 | 301 | 11.3 | 35.4 | 0.00 | 0.00 | 0.00 | 100 | 904.6 |
| 20260904234705 | 14 | 318 | 12.9 | 35.4 | 0.00 | 0.00 | 0.00 | 100 | 899.7 |
| 20260904234456 | 14 | 326 | 11.3 | 27.4 | 0.00 | 0.00 | 0.00 | 100 | 899.6 |
| 20260904234353 | 14 | 330 | 9.7 | 27.4 | 0.00 | 0.00 | 0.00 | 100 | 899.6 |
| 20260904234247 | 14 | 328 | 8.0 | 27.4 | 0.00 | 0.00 | 0.00 | 100 | 899.6 |
| 20260904234038 | 15 | 330 | 9.7 | 29.0 | 0.00 | 0.00 | 0.00 | 100 | 899.7 |
| 20260904233830 | 15 | 324 | 9.7 | 29.0 | 0.00 | 0.00 | 0.00 | 100 | 899.7 |
| 20260904233621 | 15 | 327 | 11.3 | 29.0 | 0.00 | 0.00 | 0.00 | 100 | 899.6 |
| 20260904233423 | 15 | 328 | 11.3 | 27.4 | 0.00 | 0.00 | 0.00 | 100 | 899.6 |
| 20260904233320 | 15 | 325 | 9.7 | 27.4 | 0.00 | 0.00 | 0.00 | 100 | 899.5 |
| 20260904233213 | 15 | 318 | 9.7 | 25.7 | 0.00 | 0.00 | 0.00 | 100 | 899.6 |
| 20260904233005 | 15 | 324 | 11.3 | 25.7 | 0.00 | 0.00 | 0.00 | 100 | 899.6 |
| 20260904232756 | 15 | 334 | 12.9 | 33.8 | 0.00 | 0.00 | 0.00 | 100 | 899.5 |
| 20260904232547 | 15 | 339 | 12.9 | 32.2 | 0.00 | 0.00 | 0.00 | 100 | 899.4 |
| 20260904232339 | 15 | 337 | 11.3 | 32.2 | 0.00 | 0.00 | 0.00 | 100 | 899.3 |
| 20260904232236 | 15 | 335 | 12.9 | 38.6 | 0.00 | 0.00 | 0.00 | 100 | 899.3 |
| 20260904232129 | 16 | 330 | 12.9 | 38.6 | 0.00 | 0.00 | 0.00 | 100 | 899.2 |
| 20260904231921 | 15 | 325 | 12.9 | 38.6 | 0.00 | 0.00 | 0.00 | 100 | 899.0 |
| 20260904231723 | 15 | 329 | 11.3 | 32.2 | 0.00 | 0.00 | 0.00 | 100 | 899.1 |
| 20260904231514 | 16 | 333 | 12.9 | 35.4 | 0.00 | 0.00 | 0.00 | 100 | 899.0 |
| 20260904231306 | 16 | 339 | 17.7 | 37.0 | 0.00 | 0.00 | 0.00 | 100 | 898.8 |
| 20260904231203 | 16 | 344 | 19.3 | 41.8 | 0.00 | 0.00 | 0.00 | 100 | 898.6 |
| 20260904231056 | 16 | 339 | 19.3 | 41.8 | 0.00 | 0.00 | 0.00 | 100 | 898.4 |
| 20260904230848 | 17 | 335 | 17.7 | 41.8 | 0.00 | 0.00 | 0.00 | 100 | 898.6 |
| 20260904230639 | 17 | 321 | 16.1 | 41.8 | 0.00 | 0.00 | 0.00 | 100 | 898.7 |
| 20260904230442 | 17 | 302 | 16.1 | 35.4 | 0.00 | 0.00 | 0.00 | 100 | 898.8 |
| 20260904230430 | 18 | 302 | 16.1 | 35.4 | 0.00 | 0.00 | 0.00 | 100 | 899.0 |
| 20260904230222 | 18 | 300 | 17.7 | 41.8 | 0.00 | 0.00 | 0.00 | 100 | 898.8 |
| 20260904230119 | 18 | 304 | 19.3 | 43.5 | 0.00 | 0.00 | 0.00 | 100 | 898.9 |
| 20260904230012 | 18 | 308 | 17.7 | 43.5 | 0.00 | 0.00 | 0.00 | 100 | 898.8 |
| 20260904225814 | 18 | 295 | 17.7 | 43.5 | 0.00 | 0.00 | 0.00 | 100 | 899.0 |
| 20260904225609 | 19 | 256 | 22.5 | 46.7 | 0.00 | 0.00 | 0.00 | 100 | 899.1 |
| 20260904225356 | 19 | 245 | 29.0 | 46.7 | 0.00 | 0.00 | 0.00 | 100 | 898.9 |
| 20260904225158 | 19 | 240 | 32.2 | 53.1 | 0.00 | 0.00 | 0.00 | 100 | 898.6 |
| 20260904225148 | 19 | 240 | 32.2 | 53.1 | 0.00 | 0.00 | 0.00 | 100 | 898.7 |
| 20260904225045 | 19 | 240 | 32.2 | 53.1 | 0.00 | 0.00 | 0.00 | 100 | 898.7 |
| 20260904224938 | 19 | 243 | 30.6 | 53.1 | 0.00 | 0.00 | 0.00 | 100 | 898.6 |
| 20260904224730 | 19 | 247 | 30.6 | 46.7 | 0.00 | 0.00 | 0.00 | 100 | 898.6 |
| 20260904224521 | 19 | 246 | 30.6 | 46.7 | 0.00 | 0.00 | 0.00 | 100 | 898.6 |
| 20260904224323 | 19 | 237 | 30.6 | 48.3 | 0.00 | 0.00 | 0.00 | 100 | 898.6 |
| 20260904224115 | 19 | 234 | 35.4 | 56.3 | 0.00 | 0.00 | 0.00 | 100 | 898.6 |
| 20260904224011 | 19 | 236 | 35.4 | 56.3 | 0.00 | 0.00 | 0.00 | 100 | 898.6 |
| 20260904223905 | 19 | 238 | 33.8 | 56.3 | 0.00 | 0.00 | 0.00 | 100 | 898.6 |
| 20260904223657 | 19 | 241 | 32.2 | 51.5 | 0.00 | 0.00 | 0.00 | 100 | 898.7 |
| 20260904223448 | 19 | 238 | 33.8 | 56.3 | 0.00 | 0.00 | 0.00 | 100 | 898.7 |
| 20260904223239 | 19 | 234 | 32.2 | 56.3 | 0.00 | 0.00 | 0.00 | 100 | 898.8 |
| 20260904223031 | 19 | 235 | 35.4 | 48.3 | 0.00 | 0.00 | 0.00 | 100 | 898.6 |
| 20260904222928 | 19 | 235 | 35.4 | 54.7 | 0.00 | 0.00 | 0.00 | 100 | 898.7 |
| 20260904222821 | 18 | 237 | 33.8 | 54.7 | 0.00 | 0.00 | 0.00 | 100 | 898.8 |
| 20260904222624 | 18 | 236 | 33.8 | 48.3 | 0.00 | 0.00 | 0.00 | 100 | 898.6 |
| 20260904222613 | 19 | 236 | 33.8 | 48.3 | 0.00 | 0.00 | 0.00 | 100 | 898.7 |
| 20260904222415 | 19 | 231 | 33.8 | 56.3 | 0.00 | 0.00 | 0.00 | 100 | 898.7 |
| 20260904222206 | 19 | 229 | 35.4 | 56.3 | 0.00 | 0.00 | 0.00 | 100 | 898.6 |
| 20260904221958 | 19 | 226 | 35.4 | 53.1 | 0.00 | 0.00 | 0.00 | 100 | 898.6 |
| 20260904221855 | 19 | 229 | 32.2 | 53.1 | 0.00 | 0.00 | 0.00 | 100 | 898.7 |
| 20260904221748 | 19 | 227 | 32.2 | 43.5 | 0.00 | 0.00 | 0.00 | 100 | 898.6 |
| 20260904221540 | 19 | 229 | 32.2 | 49.9 | 0.00 | 0.00 | 0.00 | 100 | 898.6 |
| 20260904221343 | 19 | 232 | 32.2 | 49.9 | 0.00 | 0.00 | 0.00 | 100 | 898.7 |
| 20260904221331 | 18 | 232 | 32.2 | 49.9 | 0.00 | 0.00 | 0.00 | 100 | 898.6 |
| 20260904221123 | 18 | 231 | 32.2 | 53.1 | 0.00 | 0.00 | 0.00 | 100 | 898.6 |
| 20260904220914 | 19 | 230 | 33.8 | 53.1 | 0.00 | 0.00 | 0.00 | 100 | 898.8 |
| 20260904220821 | 19 | 231 | 32.2 | 53.1 | 0.00 | 0.00 | 0.00 | 100 | 898.7 |
| 20260904220715 | 19 | 231 | 32.2 | 53.1 | 0.00 | 0.00 | 0.00 | 100 | 898.7 |
| 20260904220506 | 19 | 229 | 32.2 | 53.1 | 0.00 | 0.00 | 0.00 | 100 | 898.8 |
| 20260904220309 | 19 | 230 | 33.8 | 56.3 | 0.00 | 0.00 | 0.00 | 100 | 898.9 |
| 20260904220258 | 19 | 230 | 33.8 | 56.3 | 0.00 | 0.00 | 0.00 | 100 | 898.8 |
| 20260904220049 | 19 | 229 | 37.0 | 56.3 | 0.00 | 0.00 | 0.00 | 100 | 898.8 |
| 20260904215840 | 19 | 228 | 33.8 | 51.5 | 0.00 | 0.00 | 0.00 | 100 | 898.8 |
| 20260904215737 | 19 | 229 | 33.8 | 62.8 | 0.00 | 0.00 | 0.00 | 100 | 898.9 |
| 20260904215630 | 19 | 230 | 35.4 | 62.8 | 0.00 | 0.00 | 0.00 | 100 | 898.9 |
| 20260904215422 | 19 | 226 | 35.4 | 62.8 | 0.00 | 0.00 | 0.00 | 100 | 898.8 |
| 20260904215214 | 19 | 228 | 35.4 | 57.9 | 0.00 | 0.00 | 0.00 | 100 | 898.8 |
| 20260904215015 | 19 | 231 | 35.4 | 56.3 | 0.00 | 0.00 | 0.00 | 100 | 898.9 |
| 20260904214807 | 19 | 227 | 37.0 | 51.5 | 0.00 | 0.00 | 0.00 | 100 | 898.8 |
| 20260904214704 | 19 | 229 | 38.6 | 57.9 | 0.00 | 0.00 | 0.00 | 100 | 898.7 |
| 20260904214557 | 19 | 231 | 38.6 | 57.9 | 0.00 | 0.00 | 0.00 | 100 | 898.9 |
| 20260904214349 | 19 | 232 | 35.4 | 56.3 | 0.00 | 0.00 | 0.00 | 100 | 899.0 |
| 20260904214140 | 19 | 228 | 35.4 | 56.3 | 0.00 | 0.00 | 0.00 | 100 | 898.7 |
| 20260904213936 | 19 | 232 | 37.0 | 62.8 | 0.00 | 0.00 | 0.00 | 100 | 898.8 |
| 20260904213739 | 19 | 230 | 38.6 | 62.8 | 0.00 | 0.00 | 0.00 | 100 | 898.7 |
| 20260904213728 | 19 | 230 | 38.6 | 62.8 | 0.00 | 0.00 | 0.00 | 100 | 898.8 |
| 20260904213624 | 19 | 224 | 38.6 | 62.8 | 0.00 | 0.00 | 0.00 | 100 | 898.8 |
| 20260904213518 | 19 | 225 | 38.6 | 59.5 | 0.00 | 0.00 | 0.00 | 100 | 898.7 |
| 20260904213310 | 18 | 226 | 37.0 | 59.5 | 0.00 | 0.00 | 0.00 | 100 | 898.7 |
| 20260904213101 | 19 | 226 | 38.6 | 57.9 | 0.00 | 0.00 | 0.00 | 100 | 898.6 |
| 20260904212852 | 19 | 227 | 40.2 | 59.5 | 0.00 | 0.00 | 0.00 | 100 | 898.6 |
| 20260904212644 | 19 | 228 | 40.2 | 61.2 | 0.00 | 0.00 | 0.00 | 100 | 898.7 |
| 20260904212541 | 19 | 230 | 40.2 | 61.2 | 0.00 | 0.00 | 0.00 | 100 | 898.7 |
| 20260904212445 | 19 | 234 | 38.6 | 74.0 | 0.00 | 0.00 | 0.00 | 100 | 898.7 |
| 20260904212434 | 19 | 234 | 38.6 | 74.0 | 0.00 | 0.00 | 0.00 | 100 | 898.6 |
| 20260904212226 | 19 | 233 | 43.5 | 74.0 | 0.00 | 0.00 | 0.00 | 100 | 898.7 |
| 20260904212028 | 19 | 230 | 41.8 | 61.2 | 0.00 | 0.00 | 0.00 | 100 | 898.6 |
| 20260904211819 | 19 | 228 | 41.8 | 64.4 | 0.00 | 0.00 | 0.00 | 100 | 898.4 |
| 20260904211611 | 19 | 227 | 41.8 | 64.4 | 0.00 | 0.00 | 0.00 | 100 | 898.4 |
| 20260904211507 | 19 | 223 | 41.8 | 62.8 | 0.00 | 0.00 | 0.00 | 100 | 898.5 |
| 20260904211401 | 19 | 222 | 40.2 | 62.8 | 0.00 | 0.00 | 0.00 | 100 | 898.3 |
| 20260904211204 | 19 | 220 | 41.8 | 70.8 | 0.00 | 0.00 | 0.00 | 100 | 898.3 |
| 20260904211153 | 19 | 220 | 41.8 | 70.8 | 0.00 | 0.00 | 0.00 | 100 | 898.4 |
| 20260904210944 | 19 | 221 | 43.5 | 69.2 | 0.00 | 0.00 | 0.00 | 100 | 898.4 |
| 20260904210735 | 19 | 223 | 43.5 | 69.2 | 0.00 | 0.00 | 0.00 | 100 | 898.5 |
| 20260904210527 | 18 | 225 | 40.2 | 69.2 | 0.00 | 0.00 | 0.00 | 100 | 898.6 |
| 20260904210423 | 18 | 224 | 38.6 | 69.2 | 0.00 | 0.00 | 0.00 | 100 | 898.7 |
| 20260904210327 | 18 | 223 | 37.0 | 59.5 | 0.00 | 0.00 | 0.00 | 100 | 898.6 |
| 20260904210119 | 18 | 226 | 37.0 | 57.9 | 0.00 | 0.00 | 0.00 | 100 | 898.5 |
| 20260904205922 | 18 | 225 | 35.4 | 54.7 | 0.00 | 0.00 | 0.00 | 100 | 898.5 |
| 20260904205911 | 18 | 225 | 35.4 | 54.7 | 0.00 | 0.00 | 0.00 | 100 | 898.6 |
| 20260904205702 | 18 | 224 | 37.0 | 54.7 | 0.00 | 0.00 | 0.00 | 100 | 898.5 |
| 20260904205453 | 19 | 220 | 38.6 | 57.9 | 0.00 | 0.00 | 0.00 | 100 | 898.5 |
| 20260904205350 | 18 | 219 | 38.6 | 72.4 | 0.00 | 0.00 | 0.00 | 100 | 898.4 |
| 20260904205244 | 18 | 212 | 38.6 | 72.4 | 0.00 | 0.00 | 0.00 | 100 | 898.5 |
| 20260904205035 | 19 | 211 | 38.6 | 74.0 | 0.00 | 0.00 | 0.00 | 100 | 898.5 |
| 20260904204827 | 18 | 219 | 33.8 | 59.5 | 0.00 | 0.00 | 0.00 | 100 | 898.5 |
| 20260904204628 | 18 | 226 | 35.4 | 56.3 | 0.00 | 0.00 | 0.00 | 100 | 898.6 |
| 20260904204420 | 18 | 221 | 37.0 | 57.9 | 0.00 | 0.00 | 0.00 | 100 | 898.5 |
| 20260904204316 | 18 | 222 | 35.4 | 61.2 | 0.00 | 0.00 | 0.00 | 100 | 898.6 |
| 20260904204210 | 18 | 224 | 38.6 | 67.6 | 0.00 | 0.00 | 0.00 | 100 | 898.7 |
| 20260904204002 | 19 | 227 | 41.8 | 67.6 | 0.00 | 0.00 | 0.00 | 100 | 898.6 |
| 20260904203753 | 18 | 226 | 40.2 | 59.5 | 0.00 | 0.00 | 0.00 | 100 | 898.5 |
| 20260904203544 | 18 | 222 | 38.6 | 59.5 | 0.00 | 0.00 | 0.00 | 100 | 898.4 |
| 20260904203347 | 18 | 224 | 37.0 | 61.2 | 0.00 | 0.00 | 0.00 | 100 | 898.6 |
| 20260904203336 | 18 | 224 | 37.0 | 61.2 | 0.00 | 0.00 | 0.00 | 100 | 898.5 |
| 20260904203233 | 18 | 225 | 35.4 | 61.2 | 0.00 | 0.00 | 0.00 | 100 | 898.4 |
| 20260904203126 | 18 | 226 | 38.6 | 61.2 | 0.00 | 0.00 | 0.00 | 100 | 898.4 |
| 20260904202928 | 18 | 224 | 40.2 | 61.2 | 0.00 | 0.00 | 0.00 | 100 | 898.6 |
| 20260904202720 | 19 | 224 | 41.8 | 64.4 | 0.00 | 0.00 | 0.00 | 100 | 898.7 |
| 20260904202511 | 19 | 228 | 43.5 | 64.4 | 0.00 | 0.00 | 0.00 | 100 | 898.7 |
| 20260904202305 | 18 | 229 | 40.2 | 64.4 | 0.00 | 0.00 | 0.00 | 100 | 898.6 |
| 20260904202200 | 18 | 227 | 40.2 | 64.4 | 0.00 | 0.00 | 0.00 | 100 | 898.6 |
| 20260904202104 | 18 | 224 | 38.6 | 64.4 | 0.00 | 0.00 | 0.00 | 100 | 898.6 |
| 20260904202053 | 18 | 224 | 38.6 | 64.4 | 0.00 | 0.00 | 0.00 | 100 | 898.7 |
| 20260904201845 | 19 | 222 | 43.5 | 67.6 | 0.00 | 0.00 | 0.00 | 100 | 898.7 |
| 20260904201636 | 19 | 224 | 46.7 | 78.9 | 0.00 | 0.00 | 0.00 | 100 | 898.5 |
| 20260904201427 | 19 | 223 | 43.5 | 78.9 | 0.00 | 0.00 | 0.00 | 100 | 898.5 |
| 20260904201230 | 18 | 225 | 41.8 | 64.4 | 0.00 | 0.00 | 0.00 | 100 | 898.6 |
| 20260904201126 | 18 | 227 | 41.8 | 69.2 | 0.00 | 0.00 | 0.00 | 100 | 898.6 |
| 20260904201031 | 18 | 226 | 43.5 | 70.8 | 0.00 | 0.00 | 0.00 | 100 | 898.6 |
| 20260904201019 | 19 | 226 | 43.5 | 70.8 | 0.00 | 0.00 | 0.00 | 100 | 898.5 |
| 20260904200811 | 19 | 226 | 48.3 | 74.0 | 0.00 | 0.00 | 0.00 | 100 | 898.6 |
| 20260904200602 | 19 | 227 | 51.5 | 86.9 | 0.00 | 0.00 | 0.00 | 100 | 898.6 |
| 20260904200353 | 18 | 227 | 48.3 | 86.9 | 0.00 | 0.00 | 0.00 | 100 | 898.6 |
| 20260904200145 | 18 | 225 | 46.7 | 67.6 | 0.00 | 0.00 | 0.00 | 100 | 898.7 |
| 20260904200042 | 18 | 225 | 45.1 | 67.6 | 0.00 | 0.00 | 0.00 | 100 | 898.8 |
| 20260904195935 | 18 | 226 | 43.5 | 69.2 | 0.00 | 0.00 | 0.00 | 100 | 898.9 |
| 20260904195722 | 19 | 229 | 45.1 | 69.2 | 0.00 | 0.00 | 0.00 | 100 | 899.1 |
| 20260904195524 | 18 | 227 | 41.8 | 66.0 | 0.00 | 0.00 | 0.00 | 100 | 899.1 |
| 20260904195315 | 18 | 227 | 40.2 | 62.8 | 0.00 | 0.00 | 0.00 | 100 | 899.2 |